| time (UTC) | temp C | wind direction | speed KPH | gust KPH | rain 1hr cm | rain 24hr cm | rain mn cm | humidity % | barometer mb |
| 20260505025134 | 26 | 5 | 0.0 | 3.2 | 0.00 | 0.00 | 0.00 | 64 | 1015.7 |
| 20260505025023 | 26 | 5 | 1.6 | 3.2 | 0.00 | 0.00 | 0.00 | 65 | 1015.7 |
| 20260505024913 | 26 | 5 | 1.6 | 3.2 | 0.00 | 0.00 | 0.00 | 65 | 1015.7 |
| 20260505024811 | 26 | 5 | 1.6 | 3.2 | 0.00 | 0.00 | 0.00 | 65 | 1015.7 |
| 20260505024711 | 26 | 5 | 1.6 | 3.2 | 0.00 | 0.00 | 0.00 | 63 | 1015.7 |
| 20260505024605 | 26 | 5 | 0.0 | 3.2 | 0.00 | 0.00 | 0.00 | 65 | 1015.6 |
| 20260505024451 | 26 | 5 | 0.0 | 3.2 | 0.00 | 0.00 | 0.00 | 63 | 1015.7 |
| 20260505024342 | 26 | 5 | 1.6 | 3.2 | 0.00 | 0.00 | 0.00 | 65 | 1015.7 |
| 20260505024234 | 26 | 5 | 1.6 | 3.2 | 0.00 | 0.00 | 0.00 | 64 | 1015.7 |
| 20260505024121 | 26 | 5 | 1.6 | 3.2 | 0.00 | 0.00 | 0.00 | 65 | 1015.7 |
| 20260505024011 | 26 | 5 | 1.6 | 3.2 | 0.00 | 0.00 | 0.00 | 67 | 1015.8 |
| 20260505023900 | 26 | 5 | 1.6 | 3.2 | 0.00 | 0.00 | 0.00 | 65 | 1015.8 |
| 20260505023822 | 26 | 5 | 1.6 | 3.2 | 0.00 | 0.00 | 0.00 | 66 | 1015.8 |
| 20260505023642 | 26 | 5 | 1.6 | 3.2 | 0.00 | 0.00 | 0.00 | 64 | 1015.6 |
| 20260505023531 | 26 | 5 | 1.6 | 4.8 | 0.00 | 0.00 | 0.00 | 65 | 1015.7 |
| 20260505023421 | 26 | 5 | 1.6 | 4.8 | 0.00 | 0.00 | 0.00 | 65 | 1015.7 |
| 20260505023311 | 26 | 5 | 1.6 | 4.8 | 0.00 | 0.00 | 0.00 | 64 | 1015.7 |
| 20260505023211 | 26 | 263 | 1.6 | 4.8 | 0.00 | 0.00 | 0.00 | 65 | 1015.7 |
| 20260505023109 | 26 | 263 | 1.6 | 4.8 | 0.00 | 0.00 | 0.00 | 65 | 1015.8 |
| 20260505022959 | 26 | 263 | 1.6 | 4.8 | 0.00 | 0.00 | 0.00 | 63 | 1015.8 |
| 20260505022849 | 26 | 263 | 1.6 | 4.8 | 0.00 | 0.00 | 0.00 | 63 | 1015.9 |
| 20260505022739 | 26 | 211 | 1.6 | 4.8 | 0.00 | 0.00 | 0.00 | 64 | 1015.9 |
| 20260505022629 | 26 | 211 | 0.0 | 4.8 | 0.00 | 0.00 | 0.00 | 64 | 1015.8 |
| 20260505022519 | 26 | 288 | 1.6 | 3.2 | 0.00 | 0.00 | 0.00 | 64 | 1015.8 |
| 20260505022410 | 26 | 319 | 1.6 | 3.2 | 0.00 | 0.00 | 0.00 | 63 | 1015.9 |
| 20260505022304 | 26 | 319 | 1.6 | 6.4 | 0.00 | 0.00 | 0.00 | 64 | 1015.9 |
| 20260505022209 | 26 | 319 | 1.6 | 8.0 | 0.00 | 0.00 | 0.00 | 66 | 1015.8 |
| 20260505022104 | 26 | 303 | 1.6 | 8.0 | 0.00 | 0.00 | 0.00 | 63 | 1015.9 |
| 20260505021953 | 26 | 304 | 1.6 | 8.0 | 0.00 | 0.00 | 0.00 | 63 | 1016.0 |
| 20260505021851 | 26 | 304 | 1.6 | 8.0 | 0.00 | 0.00 | 0.00 | 62 | 1016.0 |
| 20260505021747 | 26 | 303 | 1.6 | 8.0 | 0.00 | 0.00 | 0.00 | 63 | 1016.0 |
| 20260505021538 | 27 | 304 | 1.6 | 8.0 | 0.00 | 0.00 | 0.00 | 60 | 1016.1 |
| 20260505021436 | 27 | 269 | 1.6 | 8.0 | 0.00 | 0.00 | 0.00 | 63 | 1016.1 |
| 20260505021336 | 27 | 248 | 1.6 | 8.0 | 0.00 | 0.00 | 0.00 | 63 | 1016.1 |
| 20260505021225 | 26 | 262 | 0.0 | 6.4 | 0.00 | 0.00 | 0.00 | 63 | 1016.1 |
| 20260505021124 | 26 | 284 | 0.0 | 3.2 | 0.00 | 0.00 | 0.00 | 65 | 1016.1 |
| 20260505021021 | 26 | 70 | 0.0 | 4.8 | 0.00 | 0.00 | 0.00 | 64 | 1016.1 |
| 20260505020920 | 26 | 70 | 0.0 | 4.8 | 0.00 | 0.00 | 0.00 | 64 | 1016.2 |
| 20260505020815 | 26 | 70 | 1.6 | 4.8 | 0.00 | 0.00 | 0.00 | 64 | 1016.2 |
| 20260505020715 | 26 | 250 | 1.6 | 4.8 | 0.00 | 0.00 | 0.00 | 64 | 1016.2 |
| 20260505020613 | 26 | 250 | 1.6 | 4.8 | 0.00 | 0.00 | 0.00 | 62 | 1016.2 |
| 20260505020511 | 26 | 250 | 1.6 | 4.8 | 0.00 | 0.00 | 0.00 | 64 | 1016.2 |
| 20260505020407 | 26 | 250 | 1.6 | 4.8 | 0.00 | 0.00 | 0.00 | 63 | 1016.3 |
| 20260505020308 | 26 | 226 | 1.6 | 4.8 | 0.00 | 0.00 | 0.00 | 63 | 1016.4 |
| 20260505020159 | 26 | 237 | 1.6 | 4.8 | 0.00 | 0.00 | 0.00 | 65 | 1016.3 |
| 20260505020112 | 26 | 279 | 1.6 | 4.8 | 0.00 | 0.00 | 0.00 | 63 | 1016.3 |
| 20260505015956 | 26 | 52 | 1.6 | 4.8 | 0.00 | 0.00 | 0.00 | 62 | 1016.4 |
| 20260505015845 | 26 | 0 | 1.6 | 4.8 | 0.00 | 0.00 | 0.00 | 65 | 1016.3 |
| 20260505015735 | 26 | 300 | 1.6 | 4.8 | 0.00 | 0.00 | 0.00 | 63 | 1016.3 |
| 20260505015626 | 26 | 5 | 1.6 | 4.8 | 0.00 | 0.00 | 0.00 | 65 | 1016.4 |
| 20260505015518 | 26 | 282 | 1.6 | 4.8 | 0.00 | 0.00 | 0.00 | 63 | 1016.4 |
| 20260505015405 | 26 | 315 | 1.6 | 4.8 | 0.00 | 0.00 | 0.00 | 65 | 1016.4 |
| 20260505015255 | 26 | 84 | 1.6 | 4.8 | 0.00 | 0.00 | 0.00 | 63 | 1016.4 |
| 20260505015148 | 26 | 84 | 1.6 | 6.4 | 0.00 | 0.00 | 0.00 | 62 | 1016.4 |
| 20260505015050 | 26 | 71 | 1.6 | 6.4 | 0.00 | 0.00 | 0.00 | 61 | 1016.4 |
| 20260505014949 | 26 | 30 | 3.2 | 8.0 | 0.00 | 0.00 | 0.00 | 64 | 1016.5 |
| 20260505014839 | 26 | 63 | 3.2 | 8.0 | 0.00 | 0.00 | 0.00 | 63 | 1016.5 |
| 20260505014730 | 26 | 28 | 3.2 | 8.0 | 0.00 | 0.00 | 0.00 | 65 | 1016.5 |
| 20260505014620 | 26 | 346 | 3.2 | 8.0 | 0.00 | 0.00 | 0.00 | 62 | 1016.4 |
| 20260505014515 | 26 | 0 | 3.2 | 8.0 | 0.00 | 0.00 | 0.00 | 64 | 1016.4 |
| 20260505014417 | 26 | 28 | 3.2 | 8.0 | 0.00 | 0.00 | 0.00 | 64 | 1016.4 |
| 20260505014307 | 26 | 355 | 3.2 | 8.0 | 0.00 | 0.00 | 0.00 | 66 | 1016.4 |
| 20260505014205 | 26 | 355 | 3.2 | 8.0 | 0.00 | 0.00 | 0.00 | 64 | 1016.4 |
| 20260505014101 | 26 | 69 | 3.2 | 8.0 | 0.00 | 0.00 | 0.00 | 64 | 1016.4 |
| 20260505014002 | 26 | 16 | 3.2 | 6.4 | 0.00 | 0.00 | 0.00 | 64 | 1016.4 |
| 20260505013853 | 26 | 324 | 3.2 | 6.4 | 0.00 | 0.00 | 0.00 | 65 | 1016.5 |
| 20260505013754 | 26 | 16 | 3.2 | 6.4 | 0.00 | 0.00 | 0.00 | 67 | 1016.4 |
| 20260505013555 | 26 | 66 | 1.6 | 6.4 | 0.00 | 0.00 | 0.00 | 67 | 1016.6 |
| 20260505013438 | 26 | 336 | 3.2 | 6.4 | 0.00 | 0.00 | 0.00 | 66 | 1016.7 |
| 20260505013325 | 26 | 341 | 1.6 | 6.4 | 0.00 | 0.00 | 0.00 | 66 | 1016.7 |
| 20260505013215 | 26 | 9 | 1.6 | 6.4 | 0.00 | 0.00 | 0.00 | 65 | 1016.7 |
| 20260505013105 | 26 | 0 | 1.6 | 6.4 | 0.00 | 0.00 | 0.00 | 64 | 1016.8 |
| 20260505013002 | 26 | 38 | 1.6 | 6.4 | 0.00 | 0.00 | 0.00 | 66 | 1016.8 |
| 20260505012903 | 26 | 5 | 1.6 | 6.4 | 0.00 | 0.00 | 0.00 | 65 | 1016.9 |
| 20260505012753 | 26 | 302 | 1.6 | 4.8 | 0.00 | 0.00 | 0.00 | 67 | 1016.8 |
| 20260505012643 | 26 | 265 | 1.6 | 4.8 | 0.00 | 0.00 | 0.00 | 66 | 1016.8 |
| 20260505012545 | 26 | 248 | 1.6 | 4.8 | 0.00 | 0.00 | 0.00 | 65 | 1016.9 |
| 20260505012425 | 26 | 31 | 1.6 | 4.8 | 0.00 | 0.00 | 0.00 | 67 | 1017.0 |
| 20260505012320 | 26 | 351 | 1.6 | 4.8 | 0.00 | 0.00 | 0.00 | 66 | 1017.0 |
| 20260505012219 | 26 | 123 | 1.6 | 4.8 | 0.00 | 0.00 | 0.00 | 66 | 1016.9 |
| 20260505012118 | 26 | 123 | 1.6 | 4.8 | 0.00 | 0.00 | 0.00 | 66 | 1017.0 |
| 20260505012015 | 26 | 71 | 1.6 | 4.8 | 0.00 | 0.00 | 0.00 | 66 | 1017.0 |
| 20260505011911 | 26 | 71 | 1.6 | 4.8 | 0.00 | 0.00 | 0.00 | 67 | 1017.1 |
| 20260505011810 | 26 | 71 | 1.6 | 4.8 | 0.00 | 0.00 | 0.00 | 64 | 1017.2 |
| 20260505011707 | 26 | 40 | 1.6 | 4.8 | 0.00 | 0.00 | 0.00 | 68 | 1017.2 |
| 20260505011606 | 26 | 348 | 1.6 | 4.8 | 0.00 | 0.00 | 0.00 | 67 | 1017.3 |
| 20260505011510 | 26 | 69 | 1.6 | 6.4 | 0.00 | 0.00 | 0.00 | 65 | 1017.3 |
| 20260505011356 | 26 | 337 | 1.6 | 6.4 | 0.00 | 0.00 | 0.00 | 66 | 1017.3 |
| 20260505011254 | 26 | 337 | 1.6 | 6.4 | 0.00 | 0.00 | 0.00 | 67 | 1017.3 |
| 20260505011154 | 26 | 47 | 1.6 | 6.4 | 0.00 | 0.00 | 0.00 | 65 | 1017.4 |
| 20260505011043 | 26 | 318 | 0.0 | 6.4 | 0.00 | 0.00 | 0.00 | 68 | 1017.4 |
| 20260505010943 | 26 | 5 | 0.0 | 6.4 | 0.00 | 0.00 | 0.00 | 68 | 1017.3 |
| 20260505010838 | 26 | 5 | 0.0 | 6.4 | 0.00 | 0.00 | 0.00 | 68 | 1017.4 |
| 20260505010739 | 26 | 5 | 1.6 | 6.4 | 0.00 | 0.00 | 0.00 | 67 | 1017.4 |
| 20260505010525 | 26 | 127 | 1.6 | 6.4 | 0.00 | 0.00 | 0.00 | 67 | 1017.5 |
| 20260505010410 | 25 | 127 | 1.6 | 6.4 | 0.00 | 0.00 | 0.00 | 68 | 1017.4 |
| 20260505010258 | 25 | 246 | 1.6 | 6.4 | 0.00 | 0.00 | 0.00 | 67 | 1017.6 |
| 20260505010148 | 25 | 246 | 1.6 | 6.4 | 0.00 | 0.00 | 0.00 | 67 | 1017.6 |
| 20260505010037 | 25 | 246 | 1.6 | 6.4 | 0.00 | 0.00 | 0.00 | 68 | 1017.6 |
| 20260505005938 | 25 | 246 | 1.6 | 6.4 | 0.00 | 0.00 | 0.00 | 67 | 1017.6 |
| 20260505005835 | 25 | 246 | 1.6 | 6.4 | 0.00 | 0.00 | 0.00 | 67 | 1017.6 |
| 20260505005725 | 25 | 261 | 1.6 | 6.4 | 0.00 | 0.00 | 0.00 | 68 | 1017.6 |
| 20260505005615 | 25 | 81 | 1.6 | 3.2 | 0.00 | 0.00 | 0.00 | 67 | 1017.6 |
| 20260505005510 | 25 | 93 | 1.6 | 6.4 | 0.00 | 0.00 | 0.00 | 70 | 1017.5 |
| 20260505005402 | 25 | 93 | 3.2 | 11.3 | 0.00 | 0.00 | 0.00 | 68 | 1017.6 |
| 20260505005257 | 25 | 317 | 3.2 | 11.3 | 0.00 | 0.00 | 0.00 | 69 | 1017.6 |
| 20260505005155 | 25 | 257 | 3.2 | 11.3 | 0.00 | 0.00 | 0.00 | 67 | 1017.6 |
| 20260505005046 | 25 | 257 | 3.2 | 11.3 | 0.00 | 0.00 | 0.00 | 69 | 1017.4 |
| 20260505004938 | 25 | 257 | 3.2 | 11.3 | 0.00 | 0.00 | 0.00 | 68 | 1017.6 |
| 20260505004826 | 25 | 257 | 3.2 | 11.3 | 0.00 | 0.00 | 0.00 | 68 | 1017.5 |
| 20260505004721 | 25 | 257 | 3.2 | 11.3 | 0.00 | 0.00 | 0.00 | 68 | 1017.6 |
| 20260505004606 | 25 | 255 | 3.2 | 11.3 | 0.00 | 0.00 | 0.00 | 70 | 1017.6 |
| 20260505004458 | 25 | 271 | 3.2 | 11.3 | 0.00 | 0.00 | 0.00 | 70 | 1017.5 |
| 20260505004351 | 25 | 292 | 4.8 | 9.7 | 0.00 | 0.00 | 0.00 | 69 | 1017.6 |
| 20260505004254 | 25 | 301 | 3.2 | 9.7 | 0.00 | 0.00 | 0.00 | 69 | 1017.6 |
| 20260505004144 | 25 | 258 | 3.2 | 9.7 | 0.00 | 0.00 | 0.00 | 69 | 1017.6 |
| 20260505004034 | 25 | 257 | 3.2 | 9.7 | 0.00 | 0.00 | 0.00 | 69 | 1017.7 |
| 20260505003933 | 25 | 238 | 3.2 | 9.7 | 0.00 | 0.00 | 0.00 | 69 | 1017.7 |
| 20260505003825 | 25 | 251 | 3.2 | 9.7 | 0.00 | 0.00 | 0.00 | 71 | 1017.7 |
| 20260505003719 | 25 | 240 | 3.2 | 9.7 | 0.00 | 0.00 | 0.00 | 71 | 1017.7 |
| 20260505003509 | 25 | 257 | 3.2 | 9.7 | 0.00 | 0.00 | 0.00 | 72 | 1017.9 |
| 20260505003402 | 25 | 287 | 3.2 | 9.7 | 0.00 | 0.00 | 0.00 | 70 | 1017.8 |
| 20260505003249 | 25 | 250 | 3.2 | 9.7 | 0.00 | 0.00 | 0.00 | 70 | 1017.9 |
| 20260505003145 | 25 | 250 | 3.2 | 9.7 | 0.00 | 0.00 | 0.00 | 69 | 1018.0 |
| 20260505003042 | 25 | 207 | 3.2 | 9.7 | 0.00 | 0.00 | 0.00 | 68 | 1017.9 |
| 20260505002955 | 25 | 173 | 3.2 | 11.3 | 0.00 | 0.00 | 0.00 | 68 | 1017.9 |
| 20260505002921 | 25 | 140 | 3.2 | 11.3 | 0.00 | 0.00 | 0.00 | 71 | 1017.9 |
| 20260505002740 | 25 | 186 | 3.2 | 11.3 | 0.00 | 0.00 | 0.00 | 72 | 1017.9 |
| 20260505002630 | 25 | 200 | 3.2 | 11.3 | 0.00 | 0.00 | 0.00 | 71 | 1017.9 |
| 20260505002519 | 25 | 138 | 3.2 | 11.3 | 0.00 | 0.00 | 0.00 | 72 | 1017.9 |
| 20260505002416 | 25 | 335 | 3.2 | 11.3 | 0.00 | 0.00 | 0.00 | 71 | 1017.9 |
| 20260505002303 | 25 | 191 | 3.2 | 11.3 | 0.00 | 0.00 | 0.00 | 69 | 1017.9 |
| 20260505002219 | 25 | 159 | 3.2 | 11.3 | 0.00 | 0.00 | 0.00 | 72 | 1017.9 |
| 20260505002051 | 25 | 136 | 3.2 | 11.3 | 0.00 | 0.00 | 0.00 | 70 | 1017.9 |
| 20260505001949 | 25 | 126 | 3.2 | 11.3 | 0.00 | 0.00 | 0.00 | 72 | 1017.9 |
| 20260505001858 | 25 | 108 | 3.2 | 8.0 | 0.00 | 0.00 | 0.00 | 70 | 1017.9 |
| 20260505001741 | 25 | 123 | 1.6 | 4.8 | 0.00 | 0.00 | 0.00 | 72 | 1017.9 |
| 20260505001636 | 25 | 149 | 3.2 | 4.8 | 0.00 | 0.00 | 0.00 | 70 | 1017.9 |
| 20260505001526 | 25 | 98 | 3.2 | 6.4 | 0.00 | 0.00 | 0.00 | 73 | 1017.9 |
| 20260505001425 | 25 | 111 | 3.2 | 6.4 | 0.00 | 0.00 | 0.00 | 72 | 1018.0 |
| 20260505001332 | 25 | 181 | 3.2 | 6.4 | 0.00 | 0.00 | 0.00 | 73 | 1018.0 |
| 20260505001223 | 25 | 169 | 3.2 | 6.4 | 0.00 | 0.00 | 0.00 | 72 | 1018.0 |
| 20260505001123 | 25 | 178 | 1.6 | 6.4 | 0.00 | 0.00 | 0.00 | 72 | 1018.1 |
| 20260505001016 | 25 | 121 | 1.6 | 6.4 | 0.00 | 0.00 | 0.00 | 73 | 1018.1 |
| 20260505000906 | 25 | 161 | 1.6 | 6.4 | 0.00 | 0.00 | 0.00 | 72 | 1018.2 |
| 20260505000756 | 24 | 241 | 3.2 | 9.7 | 0.00 | 0.00 | 0.00 | 73 | 1018.2 |
| 20260505000647 | 24 | 209 | 3.2 | 12.9 | 0.00 | 0.00 | 0.00 | 75 | 1018.2 |
| 20260505000537 | 24 | 153 | 3.2 | 12.9 | 0.00 | 0.00 | 0.00 | 74 | 1018.1 |
| 20260505000439 | 24 | 258 | 3.2 | 12.9 | 0.00 | 0.00 | 0.00 | 76 | 1018.2 |
| 20260505000325 | 24 | 259 | 3.2 | 12.9 | 0.00 | 0.00 | 0.00 | 78 | 1018.1 |
| 20260505000218 | 23 | 266 | 3.2 | 12.9 | 0.00 | 0.00 | 0.00 | 79 | 1018.1 |
| 20260505000113 | 23 | 265 | 3.2 | 12.9 | 0.00 | 0.00 | 0.00 | 77 | 1018.1 |
| 20260505000014 | 23 | 257 | 4.8 | 12.9 | 0.00 | 0.00 | 0.00 | 77 | 1018.1 |
| 20260504235905 | 23 | 257 | 4.8 | 12.9 | 0.00 | 0.00 | 0.00 | 77 | 1018.1 |
| 20260504235802 | 23 | 259 | 4.8 | 12.9 | 0.00 | 0.00 | 0.00 | 77 | 1018.1 |
| 20260504235704 | 23 | 232 | 3.2 | 11.3 | 0.00 | 0.00 | 0.00 | 77 | 1018.2 |
| 20260504235559 | 23 | 221 | 3.2 | 8.0 | 0.00 | 0.00 | 0.00 | 77 | 1018.1 |
| 20260504235458 | 23 | 232 | 1.6 | 6.4 | 0.00 | 0.00 | 0.00 | 77 | 1018.1 |
| 20260504235407 | 23 | 262 | 1.6 | 6.4 | 0.00 | 0.00 | 0.00 | 77 | 1018.1 |
| 20260504235301 | 23 | 153 | 1.6 | 6.4 | 0.00 | 0.00 | 0.00 | 77 | 1018.1 |
| 20260504235143 | 23 | 174 | 3.2 | 6.4 | 0.00 | 0.00 | 0.00 | 77 | 1018.0 |
| 20260504235035 | 23 | 212 | 3.2 | 9.7 | 0.00 | 0.00 | 0.00 | 77 | 1018.1 |
| 20260504234926 | 23 | 211 | 3.2 | 9.7 | 0.00 | 0.00 | 0.00 | 78 | 1017.9 |
| 20260504234818 | 23 | 211 | 3.2 | 9.7 | 0.00 | 0.00 | 0.00 | 78 | 1017.9 |
| 20260504234708 | 23 | 211 | 3.2 | 9.7 | 0.00 | 0.00 | 0.00 | 77 | 1017.9 |
| 20260504234602 | 23 | 211 | 3.2 | 9.7 | 0.00 | 0.00 | 0.00 | 76 | 1018.0 |
| 20260504234448 | 23 | 211 | 3.2 | 9.7 | 0.00 | 0.00 | 0.00 | 78 | 1017.9 |
| 20260504234348 | 23 | 211 | 3.2 | 9.7 | 0.00 | 0.00 | 0.00 | 80 | 1017.9 |
| 20260504234246 | 23 | 222 | 3.2 | 9.7 | 0.00 | 0.00 | 0.00 | 78 | 1017.9 |
| 20260504234142 | 23 | 294 | 3.2 | 9.7 | 0.00 | 0.00 | 0.00 | 77 | 1017.9 |
| 20260504234034 | 23 | 257 | 3.2 | 8.0 | 0.00 | 0.00 | 0.00 | 76 | 1017.9 |
| 20260504233925 | 23 | 272 | 3.2 | 8.0 | 0.00 | 0.00 | 0.00 | 76 | 1018.0 |
| 20260504233816 | 23 | 246 | 3.2 | 8.0 | 0.00 | 0.00 | 0.00 | 77 | 1018.0 |
| 20260504233707 | 24 | 176 | 3.2 | 8.0 | 0.00 | 0.00 | 0.00 | 77 | 1018.0 |
| 20260504233449 | 23 | 193 | 3.2 | 6.4 | 0.00 | 0.00 | 0.00 | 78 | 1018.0 |
| 20260504233346 | 23 | 240 | 3.2 | 6.4 | 0.00 | 0.00 | 0.00 | 78 | 1018.1 |
| 20260504233254 | 23 | 240 | 3.2 | 6.4 | 0.00 | 0.00 | 0.00 | 78 | 1018.1 |
| 20260504233145 | 23 | 249 | 3.2 | 6.4 | 0.00 | 0.00 | 0.00 | 77 | 1018.0 |
| 20260504233041 | 23 | 263 | 3.2 | 6.4 | 0.00 | 0.00 | 0.00 | 80 | 1018.1 |
| 20260504232940 | 23 | 223 | 3.2 | 6.4 | 0.00 | 0.00 | 0.00 | 77 | 1018.1 |
| 20260504232842 | 23 | 262 | 3.2 | 6.4 | 0.00 | 0.00 | 0.00 | 78 | 1018.0 |
| 20260504232740 | 23 | 185 | 3.2 | 6.4 | 0.00 | 0.00 | 0.00 | 79 | 1017.9 |
| 20260504232639 | 23 | 185 | 3.2 | 6.4 | 0.00 | 0.00 | 0.00 | 80 | 1018.1 |
| 20260504232536 | 23 | 271 | 3.2 | 6.4 | 0.00 | 0.00 | 0.00 | 79 | 1017.9 |
| 20260504232422 | 23 | 251 | 3.2 | 6.4 | 0.00 | 0.00 | 0.00 | 78 | 1018.0 |
| 20260504232314 | 23 | 304 | 3.2 | 6.4 | 0.00 | 0.00 | 0.00 | 78 | 1017.9 |
| 20260504232204 | 23 | 238 | 3.2 | 4.8 | 0.00 | 0.00 | 0.00 | 80 | 1018.0 |
| 20260504231945 | 22 | 309 | 3.2 | 4.8 | 0.00 | 0.00 | 0.00 | 82 | 1018.0 |
| 20260504231837 | 22 | 309 | 3.2 | 4.8 | 0.00 | 0.00 | 0.00 | 80 | 1018.1 |
| 20260504231733 | 22 | 317 | 3.2 | 4.8 | 0.00 | 0.00 | 0.00 | 82 | 1018.1 |
| 20260504231620 | 22 | 337 | 3.2 | 4.8 | 0.00 | 0.00 | 0.00 | 84 | 1018.2 |
| 20260504231517 | 22 | 337 | 3.2 | 4.8 | 0.00 | 0.00 | 0.00 | 84 | 1018.2 |
| 20260504231415 | 22 | 5 | 1.6 | 4.8 | 0.00 | 0.00 | 0.00 | 85 | 1018.1 |
| 20260504231316 | 22 | 336 | 1.6 | 4.8 | 0.00 | 0.00 | 0.00 | 84 | 1018.2 |
| 20260504231213 | 22 | 346 | 1.6 | 4.8 | 0.00 | 0.00 | 0.00 | 85 | 1018.2 |
| 20260504231110 | 22 | 329 | 1.6 | 3.2 | 0.00 | 0.00 | 0.00 | 84 | 1018.1 |
| 20260504231000 | 22 | 329 | 1.6 | 3.2 | 0.00 | 0.00 | 0.00 | 84 | 1018.1 |
| 20260504230902 | 22 | 5 | 1.6 | 3.2 | 0.00 | 0.00 | 0.00 | 85 | 1018.1 |
| 20260504230802 | 22 | 5 | 1.6 | 3.2 | 0.00 | 0.00 | 0.00 | 85 | 1018.1 |
| 20260504230655 | 22 | 38 | 1.6 | 3.2 | 0.00 | 0.00 | 0.00 | 85 | 1018.2 |
| 20260504230441 | 22 | 63 | 1.6 | 3.2 | 0.00 | 0.00 | 0.00 | 86 | 1018.2 |
| 20260504230339 | 22 | 63 | 1.6 | 3.2 | 0.00 | 0.00 | 0.00 | 84 | 1018.3 |
| 20260504230236 | 22 | 63 | 1.6 | 3.2 | 0.00 | 0.00 | 0.00 | 85 | 1018.3 |
| 20260504230129 | 22 | 63 | 0.0 | 3.2 | 0.00 | 0.00 | 0.00 | 86 | 1018.4 |
| 20260504230017 | 21 | 63 | 0.0 | 3.2 | 0.00 | 0.00 | 0.00 | 87 | 1018.3 |
| 20260504225909 | 21 | 63 | 0.0 | 3.2 | 0.00 | 0.00 | 0.00 | 86 | 1018.4 |
| 20260504225759 | 21 | 288 | 0.0 | 3.2 | 0.00 | 0.00 | 0.00 | 86 | 1018.4 |
| 20260504225653 | 21 | 288 | 0.0 | 3.2 | 0.00 | 0.00 | 0.00 | 87 | 1018.3 |
| 20260504225553 | 21 | 288 | 0.0 | 3.2 | 0.00 | 0.00 | 0.00 | 88 | 1018.3 |
| 20260504225444 | 21 | 31 | 0.0 | 0.0 | 0.00 | 0.00 | 0.00 | 87 | 1018.4 |
| 20260504225342 | 21 | 31 | 0.0 | 0.0 | 0.00 | 0.00 | 0.00 | 88 | 1018.4 |
| 20260504225242 | 21 | 31 | 0.0 | 0.0 | 0.00 | 0.00 | 0.00 | 87 | 1018.4 |
| 20260504225145 | 21 | 31 | 0.0 | 0.0 | 0.00 | 0.00 | 0.00 | 88 | 1018.3 |
| 20260504225037 | 21 | 31 | 0.0 | 0.0 | 0.00 | 0.00 | 0.00 | 88 | 1018.4 |
| 20260504224936 | 21 | 31 | 0.0 | 0.0 | 0.00 | 0.00 | 0.00 | 88 | 1018.4 |
| 20260504224834 | 21 | 31 | 0.0 | 0.0 | 0.00 | 0.00 | 0.00 | 88 | 1018.3 |
| 20260504224725 | 21 | 31 | 0.0 | 0.0 | 0.00 | 0.00 | 0.00 | 89 | 1018.3 |
| 20260504224616 | 21 | 31 | 0.0 | 0.0 | 0.00 | 0.00 | 0.00 | 89 | 1018.3 |
| 20260504224505 | 20 | 31 | 0.0 | 0.0 | 0.00 | 0.00 | 0.00 | 89 | 1018.3 |
| 20260504224355 | 20 | 31 | 0.0 | 0.0 | 0.00 | 0.00 | 0.00 | 88 | 1018.3 |
| 20260504224252 | 20 | 31 | 0.0 | 0.0 | 0.00 | 0.00 | 0.00 | 88 | 1018.3 |
| 20260504224148 | 20 | 31 | 0.0 | 0.0 | 0.00 | 0.00 | 0.00 | 89 | 1018.2 |
| 20260504224049 | 21 | 31 | 0.0 | 0.0 | 0.00 | 0.00 | 0.00 | 89 | 1018.3 |
| 20260504223949 | 20 | 31 | 0.0 | 0.0 | 0.00 | 0.00 | 0.00 | 89 | 1018.3 |
| 20260504223846 | 20 | 31 | 0.0 | 1.6 | 0.00 | 0.00 | 0.00 | 89 | 1018.3 |
| 20260504223741 | 20 | 31 | 0.0 | 1.6 | 0.00 | 0.00 | 0.00 | 89 | 1018.2 |
| 20260504223656 | 20 | 31 | 0.0 | 1.6 | 0.00 | 0.00 | 0.00 | 89 | 1018.3 |
| 20260504223626 | 20 | 31 | 0.0 | 1.6 | 0.00 | 0.00 | 0.00 | 90 | 1018.2 |
| 20260504223439 | 20 | 31 | 0.0 | 1.6 | 0.00 | 0.00 | 0.00 | 90 | 1018.2 |
| 20260504223335 | 20 | 31 | 0.0 | 1.6 | 0.00 | 0.00 | 0.00 | 89 | 1018.2 |
| 20260504223234 | 20 | 31 | 0.0 | 3.2 | 0.00 | 0.00 | 0.00 | 88 | 1018.3 |
| 20260504223132 | 20 | 31 | 0.0 | 3.2 | 0.00 | 0.00 | 0.00 | 90 | 1018.2 |
| 20260504223028 | 20 | 31 | 0.0 | 3.2 | 0.00 | 0.00 | 0.00 | 90 | 1018.1 |
| 20260504222929 | 20 | 31 | 0.0 | 3.2 | 0.00 | 0.00 | 0.00 | 91 | 1018.3 |
| 20260504222819 | 20 | 31 | 0.0 | 3.2 | 0.00 | 0.00 | 0.00 | 90 | 1018.3 |
| 20260504222709 | 20 | 31 | 0.0 | 3.2 | 0.00 | 0.00 | 0.00 | 91 | 1018.2 |
| 20260504222606 | 20 | 31 | 0.0 | 3.2 | 0.00 | 0.00 | 0.00 | 91 | 1018.2 |
| 20260504222505 | 20 | 31 | 0.0 | 3.2 | 0.00 | 0.00 | 0.00 | 91 | 1018.3 |
| 20260504222402 | 20 | 31 | 0.0 | 3.2 | 0.00 | 0.00 | 0.00 | 92 | 1018.3 |
| 20260504222301 | 20 | 31 | 0.0 | 3.2 | 0.00 | 0.00 | 0.00 | 92 | 1018.2 |
| 20260504222201 | 20 | 306 | 0.0 | 0.0 | 0.00 | 0.00 | 0.00 | 91 | 1018.3 |
| 20260504222131 | 20 | 306 | 0.0 | 0.0 | 0.00 | 0.00 | 0.00 | 91 | 1018.2 |
| 20260504221954 | 20 | 306 | 0.0 | 0.0 | 0.00 | 0.00 | 0.00 | 92 | 1018.3 |
| 20260504221854 | 20 | 306 | 0.0 | 0.0 | 0.00 | 0.00 | 0.00 | 92 | 1018.3 |
| 20260504221753 | 20 | 306 | 0.0 | 0.0 | 0.00 | 0.00 | 0.00 | 92 | 1018.4 |
| 20260504221650 | 20 | 306 | 0.0 | 0.0 | 0.00 | 0.00 | 0.00 | 93 | 1018.2 |
| 20260504221446 | 19 | 306 | 0.0 | 0.0 | 0.00 | 0.00 | 0.00 | 92 | 1018.3 |
| 20260504221344 | 19 | 306 | 0.0 | 0.0 | 0.00 | 0.00 | 0.00 | 92 | 1018.3 |
| 20260504221241 | 19 | 306 | 0.0 | 0.0 | 0.00 | 0.00 | 0.00 | 93 | 1018.3 |
| 20260504221137 | 19 | 306 | 0.0 | 0.0 | 0.00 | 0.00 | 0.00 | 93 | 1018.2 |
| 20260504221036 | 18 | 306 | 0.0 | 0.0 | 0.00 | 0.00 | 0.00 | 92 | 1018.2 |
| 20260504220938 | 18 | 306 | 0.0 | 0.0 | 0.00 | 0.00 | 0.00 | 92 | 1018.2 |
| 20260504220828 | 18 | 306 | 0.0 | 0.0 | 0.00 | 0.00 | 0.00 | 93 | 1018.2 |
| 20260504220726 | 18 | 306 | 0.0 | 0.0 | 0.00 | 0.00 | 0.00 | 93 | 1018.2 |
| 20260504220624 | 18 | 306 | 0.0 | 0.0 | 0.00 | 0.00 | 0.00 | 93 | 1018.1 |
| 20260504220404 | 19 | 306 | 0.0 | 0.0 | 0.00 | 0.00 | 0.00 | 94 | 1018.2 |
| 20260504220254 | 18 | 306 | 0.0 | 0.0 | 0.00 | 0.00 | 0.00 | 93 | 1018.1 |
| 20260504220144 | 18 | 306 | 0.0 | 0.0 | 0.00 | 0.00 | 0.00 | 93 | 1018.2 |
| 20260504220034 | 18 | 306 | 0.0 | 0.0 | 0.00 | 0.00 | 0.00 | 94 | 1018.2 |
| 20260504215924 | 18 | 306 | 0.0 | 0.0 | 0.00 | 0.00 | 0.00 | 94 | 1018.1 |
| 20260504215818 | 18 | 306 | 0.0 | 0.0 | 0.00 | 0.00 | 0.00 | 94 | 1018.1 |
| 20260504215754 | 18 | 306 | 0.0 | 0.0 | 0.00 | 0.00 | 0.00 | 94 | 1018.0 |
| 20260504215600 | 18 | 306 | 0.0 | 0.0 | 0.00 | 0.00 | 0.00 | 94 | 1018.0 |
| 20260504215507 | 18 | 306 | 0.0 | 0.0 | 0.00 | 0.00 | 0.00 | 94 | 1018.1 |
| 20260504215400 | 18 | 306 | 0.0 | 0.0 | 0.00 | 0.00 | 0.00 | 94 | 1018.1 |
| 20260504215300 | 18 | 306 | 0.0 | 0.0 | 0.00 | 0.00 | 0.00 | 94 | 1018.1 |
| 20260504215151 | 18 | 306 | 0.0 | 0.0 | 0.00 | 0.00 | 0.00 | 94 | 1018.1 |
| 20260504215104 | 18 | 306 | 0.0 | 0.0 | 0.00 | 0.00 | 0.00 | 94 | 1018.1 |
| 20260504214934 | 18 | 306 | 0.0 | 0.0 | 0.00 | 0.00 | 0.00 | 94 | 1018.1 |
| 20260504214827 | 17 | 306 | 0.0 | 0.0 | 0.00 | 0.00 | 0.00 | 94 | 1018.1 |
| 20260504214726 | 17 | 306 | 0.0 | 0.0 | 0.00 | 0.00 | 0.00 | 94 | 1018.1 |
| 20260504214625 | 17 | 306 | 0.0 | 0.0 | 0.00 | 0.00 | 0.00 | 94 | 1018.0 |
| 20260504214516 | 17 | 306 | 0.0 | 0.0 | 0.00 | 0.00 | 0.00 | 94 | 1018.0 |
| 20260504214421 | 17 | 306 | 0.0 | 0.0 | 0.00 | 0.00 | 0.00 | 94 | 1018.0 |
| 20260504214319 | 17 | 306 | 0.0 | 0.0 | 0.00 | 0.00 | 0.00 | 94 | 1017.9 |
| 20260504214208 | 17 | 306 | 0.0 | 0.0 | 0.00 | 0.00 | 0.00 | 94 | 1017.9 |
| 20260504214103 | 17 | 306 | 0.0 | 0.0 | 0.00 | 0.00 | 0.00 | 94 | 1018.0 |
| 20260504213949 | 17 | 306 | 0.0 | 0.0 | 0.00 | 0.00 | 0.00 | 94 | 1018.0 |
| 20260504213844 | 17 | 306 | 0.0 | 0.0 | 0.00 | 0.00 | 0.00 | 94 | 1017.9 |
| 20260504213747 | 17 | 306 | 0.0 | 0.0 | 0.00 | 0.00 | 0.00 | 94 | 1018.0 |
| 20260504213636 | 17 | 306 | 0.0 | 0.0 | 0.00 | 0.00 | 0.00 | 94 | 1018.1 |
| 20260504213534 | 17 | 306 | 0.0 | 0.0 | 0.00 | 0.00 | 0.00 | 94 | 1018.1 |
| 20260504213431 | 17 | 306 | 0.0 | 0.0 | 0.00 | 0.00 | 0.00 | 94 | 1018.1 |
| 20260504213331 | 17 | 306 | 0.0 | 0.0 | 0.00 | 0.00 | 0.00 | 94 | 1018.0 |
| 20260504213225 | 17 | 306 | 0.0 | 0.0 | 0.00 | 0.00 | 0.00 | 94 | 1018.1 |
| 20260504213108 | 17 | 306 | 0.0 | 0.0 | 0.00 | 0.00 | 0.00 | 94 | 1018.0 |
| 20260504213000 | 17 | 306 | 0.0 | 0.0 | 0.00 | 0.00 | 0.00 | 94 | 1018.1 |
| 20260504212852 | 17 | 306 | 0.0 | 0.0 | 0.00 | 0.00 | 0.00 | 93 | 1018.0 |
| 20260504212739 | 17 | 306 | 0.0 | 0.0 | 0.00 | 0.00 | 0.00 | 93 | 1018.0 |
| 20260504212629 | 17 | 306 | 0.0 | 0.0 | 0.00 | 0.00 | 0.00 | 94 | 1018.0 |
| 20260504212518 | 17 | 306 | 0.0 | 0.0 | 0.00 | 0.00 | 0.00 | 94 | 1018.0 |
| 20260504212408 | 17 | 306 | 0.0 | 0.0 | 0.00 | 0.00 | 0.00 | 94 | 1018.0 |
| 20260504212305 | 17 | 306 | 0.0 | 0.0 | 0.00 | 0.00 | 0.00 | 94 | 1018.0 |
| 20260504212209 | 17 | 306 | 0.0 | 0.0 | 0.00 | 0.00 | 0.00 | 93 | 1017.9 |
| 20260504212056 | 17 | 306 | 0.0 | 0.0 | 0.00 | 0.00 | 0.00 | 93 | 1018.1 |
| 20260504211948 | 17 | 306 | 0.0 | 0.0 | 0.00 | 0.00 | 0.00 | 93 | 1018.0 |
| 20260504211839 | 17 | 306 | 0.0 | 0.0 | 0.00 | 0.00 | 0.00 | 93 | 1018.0 |
| 20260504211727 | 17 | 306 | 0.0 | 0.0 | 0.00 | 0.00 | 0.00 | 93 | 1018.0 |
| 20260504211617 | 17 | 306 | 0.0 | 0.0 | 0.00 | 0.00 | 0.00 | 93 | 1018.0 |
| 20260504211506 | 17 | 306 | 0.0 | 0.0 | 0.00 | 0.00 | 0.00 | 93 | 1018.0 |
| 20260504211356 | 16 | 306 | 0.0 | 0.0 | 0.00 | 0.00 | 0.00 | 93 | 1018.0 |
| 20260504211247 | 16 | 306 | 0.0 | 0.0 | 0.00 | 0.00 | 0.00 | 93 | 1017.9 |
| 20260504211137 | 16 | 306 | 0.0 | 0.0 | 0.00 | 0.00 | 0.00 | 93 | 1017.9 |
| 20260504211027 | 16 | 306 | 0.0 | 0.0 | 0.00 | 0.00 | 0.00 | 93 | 1017.9 |
| 20260504210924 | 16 | 306 | 0.0 | 0.0 | 0.00 | 0.00 | 0.00 | 92 | 1017.9 |
| 20260504210825 | 16 | 306 | 0.0 | 0.0 | 0.00 | 0.00 | 0.00 | 92 | 1017.8 |
| 20260504210723 | 16 | 306 | 0.0 | 0.0 | 0.00 | 0.00 | 0.00 | 92 | 1017.9 |
| 20260504210618 | 16 | 306 | 0.0 | 0.0 | 0.00 | 0.00 | 0.00 | 92 | 1017.9 |
| 20260504210518 | 16 | 306 | 0.0 | 0.0 | 0.00 | 0.00 | 0.00 | 92 | 1017.9 |
| 20260504210408 | 16 | 306 | 0.0 | 0.0 | 0.00 | 0.00 | 0.00 | 92 | 1017.8 |
| 20260504210257 | 16 | 306 | 0.0 | 0.0 | 0.00 | 0.00 | 0.00 | 92 | 1017.8 |
| 20260504210150 | 16 | 306 | 0.0 | 0.0 | 0.00 | 0.00 | 0.00 | 92 | 1017.8 |
| 20260504210038 | 16 | 306 | 0.0 | 0.0 | 0.00 | 0.00 | 0.00 | 92 | 1017.8 |
| 20260504205930 | 16 | 306 | 0.0 | 0.0 | 0.00 | 0.00 | 0.00 | 92 | 1017.7 |
| 20260504205822 | 16 | 306 | 0.0 | 0.0 | 0.00 | 0.00 | 0.00 | 92 | 1017.8 |
| 20260504205709 | 16 | 306 | 0.0 | 0.0 | 0.00 | 0.00 | 0.00 | 92 | 1017.8 |
| 20260504205558 | 16 | 306 | 0.0 | 0.0 | 0.00 | 0.00 | 0.00 | 92 | 1017.7 |
| 20260504205449 | 16 | 306 | 0.0 | 0.0 | 0.00 | 0.00 | 0.00 | 92 | 1017.8 |
| 20260504205338 | 16 | 306 | 0.0 | 0.0 | 0.00 | 0.00 | 0.00 | 92 | 1017.8 |
| 20260504205228 | 16 | 306 | 0.0 | 0.0 | 0.00 | 0.00 | 0.00 | 92 | 1017.7 |
| 20260504205125 | 16 | 306 | 0.0 | 0.0 | 0.00 | 0.00 | 0.00 | 92 | 1017.7 |
| 20260504205026 | 16 | 306 | 0.0 | 0.0 | 0.00 | 0.00 | 0.00 | 92 | 1017.7 |
| 20260504204919 | 16 | 306 | 0.0 | 0.0 | 0.00 | 0.00 | 0.00 | 92 | 1017.8 |
| 20260504204815 | 16 | 306 | 0.0 | 0.0 | 0.00 | 0.00 | 0.00 | 92 | 1017.8 |
| 20260504204710 | 16 | 306 | 0.0 | 0.0 | 0.00 | 0.00 | 0.00 | 92 | 1017.7 |
| 20260504204610 | 16 | 306 | 0.0 | 0.0 | 0.00 | 0.00 | 0.00 | 92 | 1017.8 |
| 20260504204500 | 16 | 306 | 0.0 | 0.0 | 0.00 | 0.00 | 0.00 | 92 | 1017.7 |
| 20260504204350 | 16 | 306 | 0.0 | 0.0 | 0.00 | 0.00 | 0.00 | 92 | 1017.8 |
| 20260504204244 | 16 | 306 | 0.0 | 0.0 | 0.00 | 0.00 | 0.00 | 92 | 1017.7 |
| 20260504204133 | 16 | 306 | 0.0 | 0.0 | 0.00 | 0.00 | 0.00 | 92 | 1017.7 |
| 20260504204021 | 16 | 306 | 0.0 | 0.0 | 0.00 | 0.00 | 0.00 | 92 | 1017.7 |
| 20260504203912 | 16 | 306 | 0.0 | 0.0 | 0.00 | 0.00 | 0.00 | 91 | 1017.7 |
| 20260504203800 | 16 | 306 | 0.0 | 0.0 | 0.00 | 0.00 | 0.00 | 91 | 1017.7 |
| 20260504203658 | 16 | 306 | 0.0 | 0.0 | 0.00 | 0.00 | 0.00 | 92 | 1017.7 |
| 20260504203623 | 16 | 306 | 0.0 | 0.0 | 0.00 | 0.00 | 0.00 | 91 | 1017.8 |
| 20260504203557 | 16 | 306 | 0.0 | 0.0 | 0.00 | 0.00 | 0.00 | 92 | 1017.7 |
| 20260504203339 | 16 | 306 | 0.0 | 0.0 | 0.00 | 0.00 | 0.00 | 91 | 1017.7 |
| 20260504203231 | 16 | 306 | 0.0 | 0.0 | 0.00 | 0.00 | 0.00 | 91 | 1017.6 |
| 20260504203126 | 16 | 306 | 0.0 | 0.0 | 0.00 | 0.00 | 0.00 | 91 | 1017.6 |
| 20260504203024 | 16 | 306 | 0.0 | 0.0 | 0.00 | 0.00 | 0.00 | 91 | 1017.6 |
| 20260504202922 | 16 | 306 | 0.0 | 0.0 | 0.00 | 0.00 | 0.00 | 91 | 1017.6 |
| 20260504202819 | 16 | 306 | 0.0 | 0.0 | 0.00 | 0.00 | 0.00 | 92 | 1017.5 |
| 20260504202705 | 16 | 306 | 0.0 | 0.0 | 0.00 | 0.00 | 0.00 | 92 | 1017.5 |
| 20260504202601 | 16 | 306 | 0.0 | 0.0 | 0.00 | 0.00 | 0.00 | 92 | 1017.5 |
| 20260504202502 | 16 | 306 | 0.0 | 0.0 | 0.00 | 0.00 | 0.00 | 92 | 1017.6 |
| 20260504202354 | 16 | 306 | 0.0 | 0.0 | 0.00 | 0.00 | 0.00 | 92 | 1017.5 |
| 20260504202255 | 16 | 306 | 0.0 | 0.0 | 0.00 | 0.00 | 0.00 | 91 | 1017.6 |
| 20260504202152 | 16 | 306 | 0.0 | 0.0 | 0.00 | 0.00 | 0.00 | 91 | 1017.5 |
| 20260504202048 | 16 | 306 | 0.0 | 0.0 | 0.00 | 0.00 | 0.00 | 92 | 1017.6 |
| 20260504201838 | 16 | 306 | 0.0 | 0.0 | 0.00 | 0.00 | 0.00 | 91 | 1017.6 |
| 20260504201734 | 16 | 306 | 0.0 | 0.0 | 0.00 | 0.00 | 0.00 | 92 | 1017.5 |
| 20260504201635 | 16 | 306 | 0.0 | 0.0 | 0.00 | 0.00 | 0.00 | 91 | 1017.6 |
| 20260504201525 | 16 | 306 | 0.0 | 0.0 | 0.00 | 0.00 | 0.00 | 92 | 1017.4 |
| 20260504201415 | 16 | 306 | 0.0 | 0.0 | 0.00 | 0.00 | 0.00 | 92 | 1017.4 |
| 20260504201308 | 16 | 306 | 0.0 | 0.0 | 0.00 | 0.00 | 0.00 | 92 | 1017.4 |
| 20260504201239 | 16 | 306 | 0.0 | 0.0 | 0.00 | 0.00 | 0.00 | 92 | 1017.4 |
| 20260504201058 | 16 | 306 | 0.0 | 0.0 | 0.00 | 0.00 | 0.00 | 92 | 1017.4 |
| 20260504200958 | 16 | 306 | 0.0 | 0.0 | 0.00 | 0.00 | 0.00 | 92 | 1017.4 |
| 20260504200850 | 16 | 306 | 0.0 | 0.0 | 0.00 | 0.00 | 0.00 | 92 | 1017.4 |
| 20260504200740 | 16 | 306 | 0.0 | 0.0 | 0.00 | 0.00 | 0.00 | 92 | 1017.4 |
| 20260504200629 | 16 | 306 | 0.0 | 0.0 | 0.00 | 0.00 | 0.00 | 92 | 1017.4 |
| 20260504200548 | 16 | 306 | 0.0 | 0.0 | 0.00 | 0.00 | 0.00 | 92 | 1017.4 |
| 20260504200418 | 16 | 306 | 0.0 | 0.0 | 0.00 | 0.00 | 0.00 | 92 | 1017.4 |
| 20260504200318 | 16 | 306 | 0.0 | 0.0 | 0.00 | 0.00 | 0.00 | 92 | 1017.4 |
| 20260504200211 | 16 | 306 | 0.0 | 0.0 | 0.00 | 0.00 | 0.00 | 92 | 1017.3 |
| 20260504200104 | 16 | 306 | 0.0 | 0.0 | 0.00 | 0.00 | 0.00 | 92 | 1017.3 |
| 20260504200000 | 16 | 306 | 0.0 | 0.0 | 0.00 | 0.00 | 0.00 | 92 | 1017.4 |
| 20260504195902 | 16 | 306 | 0.0 | 0.0 | 0.00 | 0.00 | 0.00 | 92 | 1017.4 |
| 20260504195751 | 16 | 306 | 0.0 | 0.0 | 0.00 | 0.00 | 0.00 | 92 | 1017.3 |
| 20260504195640 | 16 | 306 | 0.0 | 0.0 | 0.00 | 0.00 | 0.00 | 92 | 1017.3 |
| 20260504195530 | 16 | 306 | 0.0 | 0.0 | 0.00 | 0.00 | 0.00 | 92 | 1017.3 |
| 20260504195426 | 16 | 306 | 0.0 | 0.0 | 0.00 | 0.00 | 0.00 | 92 | 1017.3 |
| 20260504195326 | 16 | 306 | 0.0 | 0.0 | 0.00 | 0.00 | 0.00 | 92 | 1017.2 |
| 20260504195224 | 16 | 306 | 0.0 | 0.0 | 0.00 | 0.00 | 0.00 | 92 | 1017.3 |
| 20260504195120 | 16 | 306 | 0.0 | 0.0 | 0.00 | 0.00 | 0.00 | 92 | 1017.3 |
| 20260504195016 | 16 | 306 | 0.0 | 0.0 | 0.00 | 0.00 | 0.00 | 92 | 1017.2 |
| 20260504194916 | 16 | 306 | 0.0 | 0.0 | 0.00 | 0.00 | 0.00 | 92 | 1017.3 |
| 20260504194807 | 16 | 306 | 0.0 | 0.0 | 0.00 | 0.00 | 0.00 | 92 | 1017.2 |
| 20260504194654 | 16 | 306 | 0.0 | 0.0 | 0.00 | 0.00 | 0.00 | 92 | 1017.2 |
| 20260504194540 | 16 | 306 | 0.0 | 0.0 | 0.00 | 0.00 | 0.00 | 92 | 1017.2 |
| 20260504194429 | 16 | 306 | 0.0 | 0.0 | 0.00 | 0.00 | 0.00 | 92 | 1017.3 |
| 20260504194321 | 16 | 306 | 0.0 | 0.0 | 0.00 | 0.00 | 0.00 | 92 | 1017.2 |
| 20260504194210 | 16 | 306 | 0.0 | 0.0 | 0.00 | 0.00 | 0.00 | 92 | 1017.2 |
| 20260504194100 | 16 | 306 | 0.0 | 0.0 | 0.00 | 0.00 | 0.00 | 92 | 1017.3 |
| 20260504193951 | 16 | 306 | 0.0 | 0.0 | 0.00 | 0.00 | 0.00 | 92 | 1017.2 |
| 20260504193841 | 16 | 306 | 0.0 | 0.0 | 0.00 | 0.00 | 0.00 | 92 | 1017.2 |
| 20260504193733 | 16 | 306 | 0.0 | 0.0 | 0.00 | 0.00 | 0.00 | 92 | 1017.2 |
| 20260504193627 | 16 | 306 | 0.0 | 0.0 | 0.00 | 0.00 | 0.00 | 92 | 1017.2 |
| 20260504193525 | 16 | 306 | 0.0 | 0.0 | 0.00 | 0.00 | 0.00 | 92 | 1017.2 |
| 20260504193322 | 16 | 306 | 0.0 | 0.0 | 0.00 | 0.00 | 0.00 | 92 | 1017.3 |
| 20260504193222 | 16 | 306 | 0.0 | 0.0 | 0.00 | 0.00 | 0.00 | 92 | 1017.2 |
| 20260504193115 | 16 | 306 | 0.0 | 0.0 | 0.00 | 0.00 | 0.00 | 92 | 1017.2 |
| 20260504193002 | 16 | 306 | 0.0 | 0.0 | 0.00 | 0.00 | 0.00 | 92 | 1017.2 |
| 20260504192852 | 16 | 306 | 0.0 | 0.0 | 0.00 | 0.00 | 0.00 | 92 | 1017.2 |
| 20260504192746 | 16 | 306 | 0.0 | 0.0 | 0.00 | 0.00 | 0.00 | 91 | 1017.1 |
| 20260504192719 | 16 | 306 | 0.0 | 0.0 | 0.00 | 0.00 | 0.00 | 92 | 1017.1 |
| 20260504192700 | 16 | 306 | 0.0 | 0.0 | 0.00 | 0.00 | 0.00 | 92 | 1017.2 |
| 20260504192430 | 16 | 306 | 0.0 | 0.0 | 0.00 | 0.00 | 0.00 | 92 | 1017.2 |
| 20260504192330 | 16 | 306 | 0.0 | 0.0 | 0.00 | 0.00 | 0.00 | 91 | 1017.1 |
| 20260504192218 | 16 | 306 | 0.0 | 0.0 | 0.00 | 0.00 | 0.00 | 91 | 1017.1 |
| 20260504192111 | 16 | 306 | 0.0 | 0.0 | 0.00 | 0.00 | 0.00 | 92 | 1017.1 |
| 20260504192025 | 16 | 306 | 0.0 | 0.0 | 0.00 | 0.00 | 0.00 | 91 | 1017.1 |
| 20260504192003 | 16 | 306 | 0.0 | 0.0 | 0.00 | 0.00 | 0.00 | 91 | 1017.1 |
| 20260504191804 | 16 | 306 | 0.0 | 0.0 | 0.00 | 0.00 | 0.00 | 91 | 1017.1 |
| 20260504191657 | 16 | 306 | 0.0 | 0.0 | 0.00 | 0.00 | 0.00 | 91 | 1017.0 |
| 20260504191559 | 16 | 306 | 0.0 | 0.0 | 0.00 | 0.00 | 0.00 | 91 | 1017.0 |
| 20260504191454 | 17 | 306 | 0.0 | 0.0 | 0.00 | 0.00 | 0.00 | 91 | 1016.9 |
| 20260504191350 | 16 | 306 | 0.0 | 0.0 | 0.00 | 0.00 | 0.00 | 91 | 1016.9 |
| 20260504191251 | 17 | 306 | 0.0 | 0.0 | 0.00 | 0.00 | 0.00 | 91 | 1017.0 |
| 20260504191141 | 17 | 306 | 0.0 | 0.0 | 0.00 | 0.00 | 0.00 | 91 | 1016.9 |
| 20260504191034 | 17 | 306 | 0.0 | 0.0 | 0.00 | 0.00 | 0.00 | 91 | 1016.9 |
| 20260504190920 | 17 | 5 | 0.0 | 0.0 | 0.00 | 0.00 | 0.00 | 91 | 1016.9 |
| 20260504190823 | 17 | 5 | 0.0 | 0.0 | 0.00 | 0.00 | 0.00 | 91 | 1016.9 |
| 20260504190714 | 17 | 5 | 0.0 | 0.0 | 0.00 | 0.00 | 0.00 | 91 | 1016.9 |
| 20260504190615 | 17 | 5 | 0.0 | 0.0 | 0.00 | 0.00 | 0.00 | 91 | 1016.8 |
| 20260504190508 | 17 | 5 | 0.0 | 0.0 | 0.00 | 0.00 | 0.00 | 91 | 1016.9 |
| 20260504190251 | 17 | 5 | 0.0 | 0.0 | 0.00 | 0.00 | 0.00 | 91 | 1016.8 |
| 20260504190152 | 17 | 5 | 0.0 | 0.0 | 0.00 | 0.00 | 0.00 | 91 | 1016.9 |
| 20260504190044 | 17 | 5 | 0.0 | 0.0 | 0.00 | 0.00 | 0.00 | 91 | 1016.9 |
| 20260504185934 | 17 | 5 | 0.0 | 0.0 | 0.00 | 0.00 | 0.00 | 91 | 1017.0 |
| 20260504185824 | 17 | 5 | 0.0 | 0.0 | 0.00 | 0.00 | 0.00 | 91 | 1016.9 |
| 20260504185714 | 17 | 5 | 0.0 | 1.6 | 0.00 | 0.00 | 0.00 | 91 | 1017.0 |
| 20260504185611 | 17 | 5 | 0.0 | 1.6 | 0.00 | 0.00 | 0.00 | 91 | 1017.0 |
| 20260504185509 | 17 | 5 | 0.0 | 1.6 | 0.00 | 0.00 | 0.00 | 91 | 1016.9 |
| 20260504185409 | 17 | 5 | 0.0 | 1.6 | 0.00 | 0.00 | 0.00 | 91 | 1016.9 |
| 20260504185259 | 17 | 5 | 0.0 | 1.6 | 0.00 | 0.00 | 0.00 | 91 | 1017.0 |
| 20260504185149 | 17 | 5 | 0.0 | 1.6 | 0.00 | 0.00 | 0.00 | 91 | 1016.9 |
| 20260504185039 | 17 | 5 | 0.0 | 1.6 | 0.00 | 0.00 | 0.00 | 91 | 1016.9 |
| 20260504184937 | 17 | 5 | 0.0 | 1.6 | 0.00 | 0.00 | 0.00 | 91 | 1017.0 |
| 20260504184732 | 17 | 5 | 0.0 | 1.6 | 0.00 | 0.00 | 0.00 | 91 | 1016.9 |
| 20260504184624 | 17 | 5 | 0.0 | 1.6 | 0.00 | 0.00 | 0.00 | 91 | 1016.9 |
| 20260504184520 | 17 | 5 | 0.0 | 1.6 | 0.00 | 0.00 | 0.00 | 91 | 1016.9 |
| 20260504184426 | 17 | 5 | 0.0 | 0.0 | 0.00 | 0.00 | 0.00 | 91 | 1016.9 |
| 20260504184312 | 17 | 5 | 0.0 | 0.0 | 0.00 | 0.00 | 0.00 | 91 | 1016.9 |
| 20260504184212 | 17 | 5 | 0.0 | 0.0 | 0.00 | 0.00 | 0.00 | 91 | 1016.9 |
| 20260504184112 | 17 | 5 | 0.0 | 0.0 | 0.00 | 0.00 | 0.00 | 91 | 1017.0 |
| 20260504184002 | 17 | 5 | 0.0 | 0.0 | 0.00 | 0.00 | 0.00 | 91 | 1016.9 |
| 20260504183852 | 17 | 5 | 0.0 | 0.0 | 0.00 | 0.00 | 0.00 | 91 | 1016.9 |
| 20260504183744 | 17 | 5 | 0.0 | 0.0 | 0.00 | 0.00 | 0.00 | 91 | 1016.9 |
| 20260504183638 | 17 | 5 | 0.0 | 0.0 | 0.00 | 0.00 | 0.00 | 91 | 1017.0 |
| 20260504183526 | 17 | 5 | 0.0 | 0.0 | 0.00 | 0.00 | 0.00 | 91 | 1017.0 |
| 20260504183420 | 17 | 5 | 0.0 | 0.0 | 0.00 | 0.00 | 0.00 | 91 | 1016.9 |
| 20260504183306 | 17 | 5 | 0.0 | 0.0 | 0.00 | 0.00 | 0.00 | 91 | 1016.9 |
| 20260504183204 | 17 | 5 | 0.0 | 0.0 | 0.00 | 0.00 | 0.00 | 91 | 1016.9 |
| 20260504183106 | 17 | 5 | 0.0 | 0.0 | 0.00 | 0.00 | 0.00 | 91 | 1016.9 |
| 20260504182954 | 17 | 5 | 0.0 | 0.0 | 0.00 | 0.00 | 0.00 | 91 | 1017.0 |
| 20260504182847 | 17 | 5 | 0.0 | 0.0 | 0.00 | 0.00 | 0.00 | 91 | 1016.9 |
| 20260504182740 | 17 | 5 | 0.0 | 0.0 | 0.00 | 0.00 | 0.00 | 91 | 1017.0 |
| 20260504182631 | 17 | 5 | 0.0 | 0.0 | 0.00 | 0.00 | 0.00 | 91 | 1016.9 |
| 20260504182519 | 17 | 5 | 0.0 | 0.0 | 0.00 | 0.00 | 0.00 | 91 | 1016.9 |
| 20260504182414 | 17 | 5 | 0.0 | 0.0 | 0.00 | 0.00 | 0.00 | 91 | 1016.9 |
| 20260504182300 | 17 | 5 | 0.0 | 0.0 | 0.00 | 0.00 | 0.00 | 91 | 1016.8 |
| 20260504182154 | 17 | 5 | 0.0 | 0.0 | 0.00 | 0.00 | 0.00 | 91 | 1016.7 |
| 20260504182045 | 17 | 5 | 0.0 | 0.0 | 0.00 | 0.00 | 0.00 | 91 | 1016.8 |
| 20260504181938 | 17 | 5 | 0.0 | 0.0 | 0.00 | 0.00 | 0.00 | 91 | 1016.8 |
| 20260504181719 | 17 | 5 | 0.0 | 0.0 | 0.00 | 0.00 | 0.00 | 91 | 1016.8 |
| 20260504181616 | 17 | 5 | 0.0 | 0.0 | 0.00 | 0.00 | 0.00 | 91 | 1016.8 |
| 20260504181518 | 17 | 5 | 0.0 | 0.0 | 0.00 | 0.00 | 0.00 | 91 | 1016.7 |
| 20260504181412 | 17 | 5 | 0.0 | 0.0 | 0.00 | 0.00 | 0.00 | 91 | 1016.8 |
| 20260504181258 | 17 | 5 | 0.0 | 0.0 | 0.00 | 0.00 | 0.00 | 91 | 1016.8 |
| 20260504181148 | 17 | 5 | 0.0 | 0.0 | 0.00 | 0.00 | 0.00 | 91 | 1016.7 |
| 20260504181039 | 17 | 5 | 0.0 | 0.0 | 0.00 | 0.00 | 0.00 | 91 | 1016.8 |
| 20260504180928 | 17 | 5 | 0.0 | 0.0 | 0.00 | 0.00 | 0.00 | 91 | 1016.7 |
| 20260504180826 | 17 | 5 | 0.0 | 0.0 | 0.00 | 0.00 | 0.00 | 91 | 1016.7 |
| 20260504180711 | 17 | 5 | 0.0 | 0.0 | 0.00 | 0.00 | 0.00 | 91 | 1016.6 |
| 20260504180605 | 17 | 5 | 0.0 | 0.0 | 0.00 | 0.00 | 0.00 | 91 | 1016.7 |
| 20260504180455 | 17 | 5 | 0.0 | 0.0 | 0.00 | 0.00 | 0.00 | 91 | 1016.7 |
| 20260504180355 | 17 | 5 | 0.0 | 0.0 | 0.00 | 0.00 | 0.00 | 91 | 1016.6 |
| 20260504180252 | 17 | 5 | 0.0 | 0.0 | 0.00 | 0.00 | 0.00 | 91 | 1016.7 |
| 20260504180152 | 17 | 5 | 0.0 | 0.0 | 0.00 | 0.00 | 0.00 | 91 | 1016.7 |
| 20260504180052 | 17 | 5 | 0.0 | 0.0 | 0.00 | 0.00 | 0.00 | 91 | 1016.6 |
| 20260504175950 | 17 | 5 | 0.0 | 0.0 | 0.00 | 0.00 | 0.00 | 91 | 1016.6 |
| 20260504175841 | 17 | 5 | 0.0 | 0.0 | 0.00 | 0.00 | 0.00 | 91 | 1016.5 |
| 20260504175735 | 17 | 5 | 0.0 | 0.0 | 0.00 | 0.00 | 0.00 | 91 | 1016.5 |
| 20260504175633 | 17 | 5 | 0.0 | 0.0 | 0.00 | 0.00 | 0.00 | 91 | 1016.6 |
| 20260504175533 | 17 | 5 | 0.0 | 0.0 | 0.00 | 0.00 | 0.00 | 91 | 1016.6 |
| 20260504175431 | 17 | 5 | 0.0 | 0.0 | 0.00 | 0.00 | 0.00 | 91 | 1016.7 |
| 20260504175325 | 17 | 5 | 0.0 | 0.0 | 0.00 | 0.00 | 0.00 | 91 | 1016.5 |
| 20260504175219 | 17 | 5 | 0.0 | 0.0 | 0.00 | 0.00 | 0.00 | 91 | 1016.5 |
| 20260504175116 | 17 | 5 | 0.0 | 0.0 | 0.00 | 0.00 | 0.00 | 91 | 1016.6 |
| 20260504175016 | 17 | 5 | 0.0 | 0.0 | 0.00 | 0.00 | 0.00 | 91 | 1016.6 |
| 20260504174938 | 17 | 5 | 0.0 | 0.0 | 0.00 | 0.00 | 0.00 | 91 | 1016.7 |
| 20260504174910 | 17 | 5 | 0.0 | 0.0 | 0.00 | 0.00 | 0.00 | 91 | 1016.6 |
| 20260504174702 | 17 | 5 | 0.0 | 0.0 | 0.00 | 0.00 | 0.00 | 91 | 1016.6 |
| 20260504174604 | 17 | 5 | 0.0 | 0.0 | 0.00 | 0.00 | 0.00 | 91 | 1016.6 |
| 20260504174454 | 17 | 5 | 0.0 | 0.0 | 0.00 | 0.00 | 0.00 | 91 | 1016.6 |
| 20260504174353 | 17 | 5 | 0.0 | 0.0 | 0.00 | 0.00 | 0.00 | 91 | 1016.6 |
| 20260504174253 | 17 | 5 | 0.0 | 0.0 | 0.00 | 0.00 | 0.00 | 91 | 1016.6 |
| 20260504174150 | 17 | 5 | 0.0 | 0.0 | 0.00 | 0.00 | 0.00 | 91 | 1016.6 |
| 20260504174047 | 17 | 5 | 0.0 | 0.0 | 0.00 | 0.00 | 0.00 | 91 | 1016.6 |
| 20260504173939 | 17 | 5 | 0.0 | 0.0 | 0.00 | 0.00 | 0.00 | 91 | 1016.7 |
| 20260504173858 | 17 | 5 | 0.0 | 0.0 | 0.00 | 0.00 | 0.00 | 91 | 1016.7 |
| 20260504173736 | 17 | 5 | 0.0 | 0.0 | 0.00 | 0.00 | 0.00 | 91 | 1016.6 |
| 20260504173637 | 17 | 5 | 0.0 | 0.0 | 0.00 | 0.00 | 0.00 | 91 | 1016.5 |
| 20260504173533 | 17 | 5 | 0.0 | 0.0 | 0.00 | 0.00 | 0.00 | 91 | 1016.6 |
| 20260504173431 | 17 | 5 | 0.0 | 0.0 | 0.00 | 0.00 | 0.00 | 91 | 1016.6 |
| 20260504173333 | 17 | 5 | 0.0 | 0.0 | 0.00 | 0.00 | 0.00 | 91 | 1016.6 |
| 20260504173230 | 17 | 5 | 0.0 | 0.0 | 0.00 | 0.00 | 0.00 | 91 | 1016.5 |
| 20260504173126 | 17 | 5 | 0.0 | 0.0 | 0.00 | 0.00 | 0.00 | 91 | 1016.5 |
| 20260504173028 | 17 | 5 | 0.0 | 0.0 | 0.00 | 0.03 | 0.00 | 91 | 1016.6 |
| 20260504172925 | 17 | 5 | 0.0 | 0.0 | 0.00 | 0.03 | 0.00 | 91 | 1016.6 |
| 20260504172827 | 17 | 5 | 0.0 | 0.0 | 0.00 | 0.03 | 0.00 | 91 | 1016.6 |
| 20260504172724 | 17 | 5 | 0.0 | 0.0 | 0.00 | 0.03 | 0.00 | 91 | 1016.6 |
| 20260504172622 | 17 | 5 | 0.0 | 0.0 | 0.00 | 0.03 | 0.00 | 91 | 1016.7 |
| 20260504172521 | 17 | 5 | 0.0 | 0.0 | 0.00 | 0.03 | 0.00 | 91 | 1016.6 |
| 20260504172422 | 17 | 5 | 0.0 | 0.0 | 0.00 | 0.03 | 0.00 | 91 | 1016.7 |
| 20260504172328 | 17 | 5 | 0.0 | 0.0 | 0.00 | 0.03 | 0.00 | 91 | 1016.7 |
| 20260504172209 | 17 | 5 | 0.0 | 0.0 | 0.00 | 0.03 | 0.00 | 91 | 1016.7 |
| 20260504172102 | 17 | 5 | 0.0 | 0.0 | 0.00 | 0.03 | 0.00 | 91 | 1016.7 |
| 20260504171956 | 17 | 5 | 0.0 | 0.0 | 0.00 | 0.03 | 0.00 | 91 | 1016.6 |
| 20260504171856 | 17 | 5 | 0.0 | 0.0 | 0.00 | 0.03 | 0.00 | 91 | 1016.6 |
| 20260504171759 | 17 | 5 | 0.0 | 0.0 | 0.00 | 0.03 | 0.00 | 91 | 1016.6 |
| 20260504171647 | 17 | 5 | 0.0 | 0.0 | 0.00 | 0.03 | 0.00 | 91 | 1016.6 |
| 20260504171545 | 17 | 5 | 0.0 | 0.0 | 0.00 | 0.03 | 0.00 | 91 | 1016.6 |
| 20260504171442 | 17 | 5 | 0.0 | 0.0 | 0.00 | 0.03 | 0.00 | 91 | 1016.6 |
| 20260504171342 | 17 | 5 | 0.0 | 0.0 | 0.00 | 0.03 | 0.00 | 91 | 1016.6 |
| 20260504171240 | 17 | 5 | 0.0 | 0.0 | 0.00 | 0.03 | 0.00 | 91 | 1016.6 |
| 20260504171139 | 17 | 5 | 0.0 | 0.0 | 0.00 | 0.03 | 0.00 | 91 | 1016.6 |
| 20260504171036 | 17 | 5 | 0.0 | 0.0 | 0.00 | 0.03 | 0.00 | 91 | 1016.5 |
| 20260504170935 | 17 | 5 | 0.0 | 0.0 | 0.00 | 0.03 | 0.00 | 91 | 1016.7 |
| 20260504170833 | 17 | 5 | 0.0 | 0.0 | 0.00 | 0.03 | 0.00 | 91 | 1016.5 |
| 20260504170723 | 17 | 5 | 0.0 | 0.0 | 0.00 | 0.03 | 0.00 | 91 | 1016.7 |
| 20260504170613 | 17 | 5 | 0.0 | 0.0 | 0.00 | 0.03 | 0.00 | 91 | 1016.7 |
| 20260504170505 | 17 | 5 | 0.0 | 0.0 | 0.00 | 0.03 | 0.00 | 91 | 1016.7 |
| 20260504170358 | 17 | 5 | 0.0 | 0.0 | 0.00 | 0.03 | 0.00 | 91 | 1016.7 |
| 20260504170158 | 17 | 5 | 0.0 | 0.0 | 0.00 | 0.03 | 0.00 | 91 | 1016.6 |
| 20260504160436 | 17 | 266 | 0.0 | 0.0 | 0.00 | 0.03 | 0.00 | 91 | 1017.0 |
| 20260504160324 | 17 | 266 | 0.0 | 0.0 | 0.00 | 0.03 | 0.00 | 91 | 1017.0 |
| 20260504160213 | 17 | 266 | 0.0 | 0.0 | 0.00 | 0.03 | 0.00 | 91 | 1017.1 |
| 20260504160103 | 17 | 266 | 0.0 | 0.0 | 0.00 | 0.03 | 0.00 | 91 | 1017.0 |
| 20260504151145 | 18 | 266 | 0.0 | 0.0 | 0.00 | 0.03 | 0.00 | 90 | 1017.2 |
| 20260504151035 | 18 | 266 | 0.0 | 0.0 | 0.00 | 0.03 | 0.00 | 90 | 1017.2 |
| 20260504150925 | 18 | 266 | 0.0 | 0.0 | 0.00 | 0.03 | 0.00 | 90 | 1017.3 |
| 20260504150822 | 18 | 266 | 0.0 | 0.0 | 0.00 | 0.03 | 0.00 | 90 | 1017.3 |
| 20260504150723 | 18 | 266 | 0.0 | 0.0 | 0.00 | 0.03 | 0.00 | 90 | 1017.3 |
| 20260504150612 | 18 | 266 | 0.0 | 0.0 | 0.00 | 0.03 | 0.00 | 90 | 1017.3 |
| 20260504150511 | 18 | 266 | 0.0 | 0.0 | 0.00 | 0.03 | 0.00 | 90 | 1017.3 |
| 20260504150407 | 18 | 266 | 0.0 | 0.0 | 0.00 | 0.03 | 0.00 | 90 | 1017.2 |
| 20260504150307 | 18 | 266 | 0.0 | 0.0 | 0.00 | 0.03 | 0.00 | 90 | 1017.2 |
| 20260504150157 | 18 | 266 | 0.0 | 0.0 | 0.00 | 0.03 | 0.00 | 90 | 1017.2 |
| 20260504141325 | 18 | 266 | 0.0 | 0.0 | 0.00 | 0.03 | 0.00 | 90 | 1017.6 |
| 20260504141223 | 18 | 266 | 0.0 | 0.0 | 0.00 | 0.03 | 0.00 | 90 | 1017.6 |
| 20260504141120 | 18 | 266 | 0.0 | 0.0 | 0.00 | 0.03 | 0.00 | 90 | 1017.6 |
| 20260504141020 | 18 | 266 | 0.0 | 0.0 | 0.00 | 0.03 | 0.00 | 90 | 1017.6 |
| 20260504140909 | 18 | 266 | 0.0 | 1.6 | 0.00 | 0.03 | 0.00 | 90 | 1017.6 |
| 20260504140801 | 18 | 266 | 0.0 | 1.6 | 0.00 | 0.03 | 0.00 | 90 | 1017.6 |
| 20260504140659 | 18 | 266 | 0.0 | 1.6 | 0.00 | 0.03 | 0.00 | 90 | 1017.6 |
| 20260504140557 | 18 | 266 | 0.0 | 1.6 | 0.00 | 0.03 | 0.00 | 90 | 1017.5 |
| 20260504140447 | 18 | 266 | 0.0 | 1.6 | 0.00 | 0.03 | 0.00 | 90 | 1017.6 |
| 20260504140341 | 18 | 266 | 0.0 | 1.6 | 0.00 | 0.03 | 0.00 | 90 | 1017.7 |
| 20260504140231 | 18 | 266 | 0.0 | 1.6 | 0.00 | 0.03 | 0.00 | 90 | 1017.6 |
| 20260504140118 | 18 | 266 | 0.0 | 1.6 | 0.00 | 0.03 | 0.00 | 90 | 1017.6 |
| 20260504130740 | 18 | 333 | 0.0 | 3.2 | 0.00 | 0.03 | 0.03 | 90 | 1018.1 |
| 20260504130629 | 18 | 333 | 0.0 | 3.2 | 0.00 | 0.03 | 0.03 | 90 | 1018.0 |
| 20260504130529 | 18 | 333 | 0.0 | 3.2 | 0.00 | 0.03 | 0.03 | 90 | 1018.0 |
| 20260504130427 | 18 | 333 | 0.0 | 3.2 | 0.00 | 0.03 | 0.03 | 90 | 1018.2 |
| 20260504130318 | 18 | 333 | 0.0 | 3.2 | 0.00 | 0.03 | 0.03 | 89 | 1017.9 |
| 20260504130207 | 18 | 333 | 0.0 | 3.2 | 0.00 | 0.03 | 0.03 | 89 | 1018.1 |
| 20260504130105 | 18 | 333 | 0.0 | 3.2 | 0.00 | 0.03 | 0.03 | 89 | 1018.1 |
| 20260504120223 | 19 | 155 | 0.0 | 0.0 | 0.00 | 0.03 | 0.03 | 88 | 1018.5 |
| 20260504120114 | 19 | 155 | 0.0 | 0.0 | 0.00 | 0.03 | 0.03 | 88 | 1018.5 |
| 20260504110636 | 20 | 210 | 0.0 | 0.0 | 0.00 | 0.03 | 0.03 | 86 | 1018.9 |
| 20260504110521 | 20 | 210 | 0.0 | 0.0 | 0.00 | 0.03 | 0.03 | 86 | 1018.9 |
| 20260504110410 | 20 | 210 | 0.0 | 0.0 | 0.00 | 0.03 | 0.03 | 86 | 1018.9 |
| 20260504110302 | 20 | 210 | 0.0 | 0.0 | 0.00 | 0.03 | 0.03 | 86 | 1018.9 |
| 20260504110151 | 20 | 210 | 0.0 | 0.0 | 0.00 | 0.03 | 0.03 | 86 | 1018.9 |
| 20260504100555 | 20 | 167 | 1.6 | 6.4 | 0.00 | 0.03 | 0.03 | 85 | 1018.8 |
| 20260504100453 | 20 | 167 | 1.6 | 6.4 | 0.00 | 0.03 | 0.03 | 85 | 1018.8 |
| 20260504100349 | 20 | 167 | 1.6 | 6.4 | 0.00 | 0.03 | 0.03 | 84 | 1018.8 |
| 20260504100249 | 20 | 241 | 1.6 | 4.8 | 0.00 | 0.03 | 0.03 | 84 | 1018.9 |
| 20260504100141 | 21 | 241 | 0.0 | 4.8 | 0.00 | 0.03 | 0.03 | 84 | 1018.7 |
| 20260504090135 | 21 | 170 | 0.0 | 3.2 | 0.00 | 0.03 | 0.03 | 82 | 1018.0 |
| 20260504081926 | 22 | 71 | 1.6 | 6.4 | 0.00 | 0.03 | 0.03 | 80 | 1017.5 |
| 20260504081817 | 22 | 71 | 1.6 | 6.4 | 0.00 | 0.03 | 0.03 | 80 | 1017.6 |
| 20260504081707 | 22 | 71 | 1.6 | 6.4 | 0.00 | 0.03 | 0.03 | 80 | 1017.5 |
| 20260504081557 | 22 | 71 | 1.6 | 6.4 | 0.00 | 0.03 | 0.03 | 80 | 1017.6 |
| 20260504081451 | 22 | 74 | 1.6 | 6.4 | 0.00 | 0.03 | 0.03 | 80 | 1017.5 |
| 20260504081338 | 22 | 92 | 1.6 | 8.0 | 0.00 | 0.03 | 0.03 | 80 | 1017.5 |
| 20260504081229 | 22 | 92 | 1.6 | 8.0 | 0.00 | 0.03 | 0.03 | 80 | 1017.4 |
| 20260504081128 | 22 | 103 | 1.6 | 8.0 | 0.00 | 0.03 | 0.03 | 80 | 1017.4 |
| 20260504081030 | 22 | 78 | 1.6 | 8.0 | 0.00 | 0.03 | 0.03 | 80 | 1017.4 |
| 20260504080928 | 22 | 78 | 1.6 | 8.0 | 0.00 | 0.03 | 0.03 | 80 | 1017.5 |
| 20260504080830 | 22 | 131 | 1.6 | 8.0 | 0.00 | 0.03 | 0.03 | 80 | 1017.4 |
| 20260504080718 | 22 | 100 | 1.6 | 8.0 | 0.00 | 0.03 | 0.03 | 80 | 1017.3 |
| 20260504080608 | 22 | 55 | 1.6 | 8.0 | 0.00 | 0.03 | 0.03 | 80 | 1017.4 |
| 20260504080500 | 22 | 40 | 1.6 | 8.0 | 0.00 | 0.03 | 0.03 | 80 | 1017.4 |
| 20260504080400 | 22 | 63 | 1.6 | 9.7 | 0.00 | 0.03 | 0.03 | 80 | 1017.4 |
| 20260504080302 | 22 | 41 | 1.6 | 12.9 | 0.00 | 0.03 | 0.03 | 80 | 1017.3 |
| 20260504080152 | 22 | 79 | 1.6 | 12.9 | 0.00 | 0.03 | 0.03 | 80 | 1017.3 |
| 20260504070327 | 23 | 344 | 3.2 | 9.7 | 0.00 | 0.03 | 0.03 | 75 | 1016.7 |
| 20260504070215 | 23 | 98 | 3.2 | 9.7 | 0.00 | 0.03 | 0.03 | 75 | 1016.8 |
| 20260504060222 | 25 | 5 | 3.2 | 11.3 | 0.00 | 0.03 | 0.03 | 72 | 1016.6 |
| 20260504060112 | 25 | 30 | 3.2 | 8.0 | 0.00 | 0.03 | 0.03 | 71 | 1016.5 |
| 20260504050713 | 26 | 281 | 3.2 | 8.0 | 0.00 | 0.03 | 0.03 | 67 | 1016.7 |
| 20260504050556 | 26 | 355 | 3.2 | 8.0 | 0.00 | 0.03 | 0.03 | 66 | 1016.6 |
| 20260504050456 | 26 | 355 | 1.6 | 8.0 | 0.00 | 0.03 | 0.03 | 64 | 1016.6 |
| 20260504050346 | 26 | 26 | 1.6 | 6.4 | 0.00 | 0.03 | 0.03 | 67 | 1016.7 |
| 20260504050236 | 26 | 339 | 3.2 | 4.8 | 0.00 | 0.03 | 0.03 | 67 | 1016.7 |
| 20260504050135 | 26 | 338 | 3.2 | 6.4 | 0.00 | 0.03 | 0.03 | 67 | 1016.7 |
| 20260504045926 | 26 | 42 | 3.2 | 8.0 | 0.00 | 0.03 | 0.03 | 66 | 1016.8 |
| 20260504045815 | 26 | 300 | 3.2 | 8.0 | 0.00 | 0.03 | 0.03 | 66 | 1016.7 |
| 20260504045705 | 26 | 77 | 3.2 | 8.0 | 0.00 | 0.03 | 0.03 | 67 | 1016.8 |
| 20260504045601 | 26 | 46 | 3.2 | 8.0 | 0.00 | 0.03 | 0.03 | 65 | 1016.8 |
| 20260504045446 | 26 | 98 | 3.2 | 8.0 | 0.00 | 0.03 | 0.03 | 66 | 1016.7 |
| 20260504045339 | 26 | 67 | 3.2 | 11.3 | 0.00 | 0.03 | 0.03 | 67 | 1016.8 |
| 20260504045233 | 26 | 10 | 3.2 | 11.3 | 0.00 | 0.03 | 0.03 | 65 | 1016.6 |
| 20260504045128 | 26 | 34 | 3.2 | 11.3 | 0.00 | 0.03 | 0.03 | 65 | 1016.6 |
| 20260504045013 | 26 | 339 | 3.2 | 11.3 | 0.00 | 0.03 | 0.03 | 66 | 1016.6 |
| 20260504044910 | 26 | 29 | 3.2 | 11.3 | 0.00 | 0.03 | 0.03 | 65 | 1016.6 |
| 20260504044808 | 26 | 5 | 4.8 | 17.7 | 0.00 | 0.03 | 0.03 | 64 | 1016.7 |
| 20260504044709 | 26 | 124 | 4.8 | 17.7 | 0.00 | 0.03 | 0.03 | 65 | 1016.7 |
| 20260504044607 | 26 | 348 | 4.8 | 17.7 | 0.00 | 0.03 | 0.03 | 64 | 1016.7 |
| 20260504044507 | 26 | 61 | 3.2 | 17.7 | 0.00 | 0.03 | 0.03 | 66 | 1016.6 |
| 20260504044400 | 26 | 319 | 3.2 | 17.7 | 0.00 | 0.03 | 0.03 | 64 | 1016.6 |
| 20260504044253 | 26 | 28 | 3.2 | 17.7 | 0.00 | 0.03 | 0.03 | 64 | 1016.7 |
| 20260504044151 | 26 | 342 | 3.2 | 17.7 | 0.00 | 0.03 | 0.03 | 67 | 1016.6 |
| 20260504043927 | 27 | 34 | 3.2 | 17.7 | 0.00 | 0.03 | 0.03 | 64 | 1016.6 |
| 20260504043825 | 27 | 59 | 1.6 | 9.7 | 0.00 | 0.03 | 0.03 | 64 | 1016.6 |
| 20260504043711 | 27 | 228 | 1.6 | 9.7 | 0.00 | 0.03 | 0.03 | 64 | 1016.6 |
| 20260504043604 | 27 | 213 | 1.6 | 9.7 | 0.00 | 0.03 | 0.03 | 65 | 1016.5 |
| 20260504043455 | 26 | 34 | 1.6 | 9.7 | 0.00 | 0.03 | 0.03 | 66 | 1016.6 |
| 20260504043345 | 26 | 34 | 1.6 | 9.7 | 0.00 | 0.03 | 0.03 | 66 | 1016.5 |
| 20260504043235 | 26 | 113 | 1.6 | 9.7 | 0.00 | 0.03 | 0.03 | 65 | 1016.6 |
| 20260504043129 | 26 | 38 | 1.6 | 9.7 | 0.00 | 0.03 | 0.03 | 65 | 1016.6 |
| 20260504043028 | 26 | 343 | 1.6 | 6.4 | 0.00 | 0.03 | 0.03 | 65 | 1016.6 |
| 20260504042926 | 26 | 205 | 3.2 | 6.4 | 0.00 | 0.03 | 0.03 | 64 | 1016.6 |
| 20260504042825 | 26 | 147 | 3.2 | 6.4 | 0.00 | 0.03 | 0.03 | 64 | 1016.6 |
| 20260504042723 | 26 | 266 | 3.2 | 17.7 | 0.00 | 0.03 | 0.03 | 67 | 1016.7 |
| 20260504042625 | 26 | 87 | 4.8 | 17.7 | 0.00 | 0.03 | 0.03 | 65 | 1016.7 |
| 20260504042529 | 26 | 87 | 4.8 | 17.7 | 0.00 | 0.03 | 0.03 | 64 | 1016.7 |
| 20260504042420 | 26 | 87 | 6.4 | 17.7 | 0.00 | 0.03 | 0.03 | 63 | 1016.6 |
| 20260504042327 | 26 | 351 | 6.4 | 17.7 | 0.00 | 0.03 | 0.03 | 64 | 1016.7 |
| 20260504042218 | 26 | 299 | 6.4 | 17.7 | 0.00 | 0.03 | 0.03 | 67 | 1016.7 |
| 20260504042114 | 26 | 333 | 6.4 | 17.7 | 0.00 | 0.03 | 0.03 | 65 | 1016.7 |
| 20260504042012 | 26 | 76 | 6.4 | 17.7 | 0.00 | 0.03 | 0.03 | 67 | 1016.6 |
| 20260504041908 | 26 | 87 | 6.4 | 17.7 | 0.00 | 0.03 | 0.03 | 64 | 1016.7 |
| 20260504041806 | 26 | 23 | 6.4 | 17.7 | 0.00 | 0.03 | 0.03 | 63 | 1016.7 |
| 20260504041708 | 26 | 48 | 4.8 | 17.7 | 0.00 | 0.03 | 0.03 | 64 | 1016.7 |
| 20260504041601 | 26 | 67 | 4.8 | 17.7 | 0.00 | 0.03 | 0.03 | 66 | 1016.7 |
| 20260504041504 | 26 | 83 | 4.8 | 12.9 | 0.00 | 0.03 | 0.03 | 65 | 1016.7 |
| 20260504041401 | 26 | 64 | 4.8 | 12.9 | 0.00 | 0.03 | 0.03 | 65 | 1016.6 |
| 20260504041222 | 26 | 75 | 4.8 | 12.9 | 0.00 | 0.03 | 0.03 | 64 | 1016.8 |
| 20260504041124 | 26 | 53 | 4.8 | 12.9 | 0.00 | 0.03 | 0.03 | 67 | 1016.7 |
| 20260504041020 | 26 | 78 | 4.8 | 12.9 | 0.00 | 0.03 | 0.03 | 66 | 1016.8 |
| 20260504040913 | 26 | 19 | 4.8 | 12.9 | 0.00 | 0.03 | 0.03 | 65 | 1016.6 |
| 20260504040811 | 26 | 19 | 4.8 | 12.9 | 0.00 | 0.03 | 0.03 | 66 | 1016.7 |
| 20260504040714 | 26 | 114 | 4.8 | 9.7 | 0.00 | 0.03 | 0.03 | 67 | 1016.7 |
| 20260504040607 | 26 | 63 | 4.8 | 12.9 | 0.00 | 0.03 | 0.03 | 64 | 1016.9 |
| 20260504040505 | 26 | 48 | 3.2 | 12.9 | 0.00 | 0.03 | 0.03 | 64 | 1016.7 |
| 20260504040357 | 27 | 44 | 3.2 | 12.9 | 0.00 | 0.03 | 0.03 | 65 | 1016.8 |
| 20260504040259 | 27 | 40 | 3.2 | 12.9 | 0.00 | 0.03 | 0.03 | 63 | 1016.8 |
| 20260504040159 | 27 | 119 | 3.2 | 12.9 | 0.00 | 0.03 | 0.03 | 64 | 1016.8 |
| 20260504040053 | 27 | 122 | 3.2 | 12.9 | 0.00 | 0.03 | 0.03 | 65 | 1016.8 |
| 20260504035951 | 27 | 56 | 3.2 | 12.9 | 0.00 | 0.03 | 0.03 | 65 | 1016.9 |
| 20260504035850 | 27 | 180 | 3.2 | 12.9 | 0.00 | 0.03 | 0.03 | 66 | 1016.9 |
| 20260504035741 | 27 | 61 | 3.2 | 12.9 | 0.00 | 0.03 | 0.03 | 64 | 1016.9 |
| 20260504035630 | 27 | 142 | 3.2 | 11.3 | 0.00 | 0.03 | 0.03 | 69 | 1017.0 |
| 20260504035526 | 26 | 71 | 3.2 | 11.3 | 0.00 | 0.03 | 0.03 | 67 | 1017.0 |
| 20260504035424 | 26 | 58 | 3.2 | 11.3 | 0.00 | 0.03 | 0.03 | 67 | 1017.0 |
| 20260504035327 | 26 | 47 | 3.2 | 11.3 | 0.00 | 0.03 | 0.03 | 65 | 1017.0 |
| 20260504035215 | 27 | 63 | 3.2 | 11.3 | 0.00 | 0.03 | 0.03 | 65 | 1016.9 |
| 20260504035107 | 27 | 37 | 3.2 | 9.7 | 0.00 | 0.03 | 0.03 | 66 | 1016.9 |
| 20260504035005 | 27 | 190 | 3.2 | 9.7 | 0.00 | 0.03 | 0.03 | 68 | 1016.9 |
| 20260504034901 | 27 | 82 | 3.2 | 9.7 | 0.00 | 0.03 | 0.03 | 65 | 1016.9 |
| 20260504034803 | 27 | 65 | 3.2 | 14.5 | 0.00 | 0.03 | 0.03 | 67 | 1016.9 |
| 20260504034657 | 27 | 173 | 3.2 | 14.5 | 0.00 | 0.03 | 0.03 | 66 | 1016.9 |
| 20260504034553 | 27 | 173 | 3.2 | 14.5 | 0.00 | 0.03 | 0.03 | 65 | 1017.0 |
| 20260504034454 | 27 | 92 | 3.2 | 14.5 | 0.00 | 0.03 | 0.03 | 66 | 1016.9 |
| 20260504034348 | 27 | 69 | 3.2 | 14.5 | 0.00 | 0.03 | 0.03 | 71 | 1016.9 |
| 20260504034248 | 27 | 51 | 3.2 | 14.5 | 0.00 | 0.03 | 0.03 | 67 | 1016.8 |
| 20260504034144 | 27 | 51 | 3.2 | 14.5 | 0.00 | 0.03 | 0.03 | 67 | 1016.8 |
| 20260504034042 | 27 | 79 | 3.2 | 14.5 | 0.00 | 0.03 | 0.03 | 68 | 1016.9 |
| 20260504033950 | 27 | 32 | 3.2 | 14.5 | 0.00 | 0.03 | 0.03 | 69 | 1016.8 |
| 20260504033837 | 27 | 36 | 3.2 | 14.5 | 0.00 | 0.03 | 0.03 | 68 | 1016.9 |
| 20260504033736 | 27 | 42 | 3.2 | 8.0 | 0.00 | 0.03 | 0.03 | 65 | 1016.8 |
| 20260504033637 | 27 | 26 | 3.2 | 8.0 | 0.00 | 0.03 | 0.03 | 67 | 1016.8 |
| 20260504033526 | 27 | 347 | 3.2 | 12.9 | 0.00 | 0.03 | 0.03 | 67 | 1016.9 |
| 20260504033419 | 27 | 318 | 3.2 | 12.9 | 0.00 | 0.03 | 0.03 | 67 | 1016.9 |
| 20260504033308 | 27 | 63 | 3.2 | 12.9 | 0.00 | 0.03 | 0.03 | 67 | 1016.9 |
| 20260504033158 | 26 | 349 | 3.2 | 12.9 | 0.00 | 0.03 | 0.03 | 68 | 1016.9 |
| 20260504033050 | 26 | 67 | 4.8 | 12.9 | 0.00 | 0.03 | 0.03 | 67 | 1016.9 |
| 20260504032950 | 26 | 36 | 4.8 | 12.9 | 0.00 | 0.03 | 0.03 | 68 | 1016.9 |
| 20260504032854 | 26 | 0 | 4.8 | 12.9 | 0.00 | 0.03 | 0.03 | 67 | 1017.0 |
| 20260504032747 | 27 | 342 | 4.8 | 14.5 | 0.00 | 0.03 | 0.03 | 68 | 1016.8 |
| 20260504032650 | 27 | 28 | 4.8 | 14.5 | 0.00 | 0.03 | 0.03 | 66 | 1016.9 |
| 20260504032539 | 27 | 165 | 4.8 | 14.5 | 0.00 | 0.03 | 0.03 | 67 | 1016.9 |
| 20260504032437 | 27 | 325 | 4.8 | 14.5 | 0.00 | 0.03 | 0.03 | 66 | 1016.9 |
| 20260504032334 | 27 | 31 | 4.8 | 14.5 | 0.00 | 0.03 | 0.03 | 69 | 1017.0 |
| 20260504032236 | 26 | 322 | 4.8 | 14.5 | 0.00 | 0.03 | 0.03 | 68 | 1017.0 |
| 20260504032130 | 26 | 29 | 4.8 | 14.5 | 0.00 | 0.03 | 0.03 | 68 | 1016.9 |
| 20260504032028 | 26 | 130 | 4.8 | 14.5 | 0.00 | 0.03 | 0.03 | 66 | 1016.9 |
| 20260504031929 | 26 | 348 | 4.8 | 16.1 | 0.00 | 0.03 | 0.03 | 66 | 1017.0 |
| 20260504031826 | 26 | 19 | 4.8 | 16.1 | 0.00 | 0.03 | 0.03 | 67 | 1017.0 |
| 20260504031712 | 26 | 22 | 4.8 | 16.1 | 0.00 | 0.03 | 0.03 | 67 | 1017.0 |
| 20260504031603 | 26 | 18 | 4.8 | 16.1 | 0.00 | 0.03 | 0.03 | 66 | 1017.0 |
| 20260504031451 | 26 | 335 | 4.8 | 16.1 | 0.00 | 0.03 | 0.03 | 66 | 1017.0 |
| 20260504031344 | 26 | 36 | 4.8 | 16.1 | 0.00 | 0.03 | 0.03 | 66 | 1017.1 |
| 20260504031240 | 26 | 338 | 4.8 | 16.1 | 0.00 | 0.03 | 0.03 | 67 | 1017.0 |
| 20260504031140 | 26 | 330 | 3.2 | 16.1 | 0.00 | 0.03 | 0.03 | 64 | 1017.0 |
| 20260504031029 | 27 | 17 | 3.2 | 8.0 | 0.00 | 0.03 | 0.03 | 65 | 1017.0 |
| 20260504030928 | 26 | 30 | 3.2 | 11.3 | 0.00 | 0.03 | 0.03 | 67 | 1017.1 |
| 20260504030818 | 27 | 323 | 3.2 | 11.3 | 0.00 | 0.03 | 0.03 | 64 | 1017.1 |
| 20260504030714 | 27 | 0 | 3.2 | 11.3 | 0.00 | 0.03 | 0.03 | 65 | 1017.1 |
| 20260504030613 | 26 | 58 | 4.8 | 12.9 | 0.00 | 0.03 | 0.03 | 66 | 1017.0 |
| 20260504030504 | 26 | 347 | 4.8 | 12.9 | 0.00 | 0.03 | 0.03 | 65 | 1017.1 |
| 20260504030353 | 26 | 43 | 4.8 | 12.9 | 0.00 | 0.03 | 0.03 | 67 | 1017.1 |
| 20260504030251 | 26 | 355 | 4.8 | 12.9 | 0.00 | 0.03 | 0.03 | 65 | 1017.1 |
| 20260504030148 | 26 | 347 | 4.8 | 12.9 | 0.00 | 0.03 | 0.03 | 64 | 1017.2 |
| 20260504030050 | 27 | 11 | 3.2 | 12.9 | 0.00 | 0.03 | 0.03 | 65 | 1017.2 |
| 20260504025937 | 27 | 278 | 3.2 | 12.9 | 0.00 | 0.03 | 0.03 | 65 | 1017.1 |
| 20260504025827 | 27 | 5 | 3.2 | 12.9 | 0.00 | 0.03 | 0.03 | 64 | 1017.2 |
| 20260504025726 | 27 | 59 | 3.2 | 12.9 | 0.00 | 0.03 | 0.03 | 64 | 1017.2 |
| 20260504025626 | 27 | 24 | 1.6 | 12.9 | 0.00 | 0.03 | 0.03 | 65 | 1017.2 |
| 20260504025515 | 27 | 122 | 1.6 | 12.9 | 0.00 | 0.03 | 0.03 | 69 | 1017.2 |
| 20260504025405 | 26 | 85 | 1.6 | 12.9 | 0.00 | 0.03 | 0.03 | 67 | 1017.3 |
| 20260504025255 | 26 | 153 | 3.2 | 12.9 | 0.00 | 0.03 | 0.03 | 69 | 1017.2 |